[{"header": {"dx": 0.06612293990616946, "dy": 0.0552356325346848, "nx": 98, "ny": 59, "la1": 35.046912555036876, "la2": 31.78801023549047, "lo1": -121.43107172385933, "lo2": -114.95102361305473, "refTime": "2026041520", "parameterCategory": 1, "parameterNumber": 2}, "data": [7.55, 7.55, 7.59, 7.6, 7.61, 8.22, 7.86, 7.81, 8.08, 8.18, 8.15, 8.0, 9.75, 9.06, 8.77, 8.77, 8.29, 6.88, 3.72, 0.0, 0.0, 0.0, 0.0, 0.0, 0.0, -0.96, -1.05, -1.99, -2.16, -1.84, -0.96, 0.0, 0.0, 0.96, 1.98, 3.0, 3.72, 3.72, 3.72, 4.74, 5.15, 6.32, 8.0, 8.18, 10.0, 9.9, 10.43, 10.18, 9.97, 9.68, 9.68, 9.79, 9.83, 9.35, 9.21, 8.3, 8.21, 7.82, 7.82, 7.2, 7.6, 7.6, 7.2, 6.6, 6.6, 7.2, 7.2, 7.2, 7.2, 7.2, 6.99, 6.57, 5.94, 5.4, 4.98, 4.4, 5.26, 4.47, 4.02, 2.68, 2.24, 2.24, 2.68, 2.68, 2.68, 3.13, 4.92, 4.98, 2.09, -0.0, 0.89, 1.75, 3.63, 3.63, 4.74, 5.36, 5.1, 2.69, 7.53, 7.55, 7.57, 7.59, 7.33, 7.61, 7.9, 8.15, 8.08, 8.0, 7.9, 9.03, 8.8, 8.82, 9.21, 9.03, 8.06, 8.48, 4.74, 1.05, 0.0, 0.0, 0.0, 0.0, -1.05, -0.96, -0.96, -1.05, -0.96, -1.03, -1.03, 0.0, 0.0, 0.89, 1.84, 2.82, 3.77, 3.77, 3.55, 3.97, 4.87, 6.98, 8.18, 7.76, 9.42, 9.77, 9.66, 9.06, 9.21, 8.9, 9.35, 9.39, 8.94, 8.36, 8.19, 8.17, 7.82, 8.17, 8.17, 7.76, 7.76, 7.2, 6.8, 6.6, 6.6, 6.8, 7.2, 7.2, 7.53, 7.53, 7.12, 6.94, 6.2, 5.36, 4.34, 4.77, 5.26, 4.47, 4.02, 2.68, 2.24, 2.24, 2.68, 2.68, 2.68, 3.13, 4.92, 4.98, 2.09, -0.0, 0.89, 1.75, 3.63, 3.63, 4.74, 5.36, 5.1, 2.69, 7.53, 7.55, 7.57, 7.59, 7.6, 7.61, 8.22, 7.86, 7.81, 7.73, 7.72, 7.07, 8.8, 8.72, 8.3, 8.3, 8.56, 8.56, 6.6, 3.2, 0.96, 0.0, 0.0, -1.63, -1.63, -1.05, -1.05, -1.05, 0.0, 0.0, 0.0, 0.0, 0.0, 1.49, 1.84, 3.15, 2.67, 2.83, 2.83, 3.8, 4.71, 6.24, 7.68, 8.42, 8.82, 9.13, 8.56, 8.9, 8.94, 8.94, 8.94, 8.9, 8.77, 8.56, 7.89, 8.3, 8.3, 8.3, 8.48, 8.06, 8.06, 7.53, 6.8, 6.8, 6.8, 7.2, 7.2, 7.53, 7.53, 7.81, 7.55, 7.15, 6.26, 4.47, 4.02, 4.02, 4.47, 4.47, 2.24, -0.0, -0.0, 2.68, 2.68, 2.68, 2.68, 3.39, 4.02, 3.49, 0.89, -0.0, 0.89, 1.75, 3.63, 3.45, 5.36, 6.32, 4.94, 1.84, 7.53, 7.55, 7.55, 7.57, 7.33, 7.61, 7.61, 7.9, 8.15, 7.51, 7.44, 7.15, 8.43, 8.0, 8.72, 8.4, 8.4, 8.58, 8.17, 5.84, 3.0, 1.73, 0.0, -1.05, -0.96, -1.73, -0.96, 0.0, 0.0, 0.0, 0.0, 0.0, 0.0, 1.58, 1.58, 3.15, 2.83, 2.7, 3.49, 4.4, 5.9, 6.7, 7.68, 7.81, 7.82, 8.48, 8.33, 8.9, 8.94, 9.39, 8.91, 9.68, 9.06, 8.99, 8.72, 8.99, 8.56, 8.56, 8.56, 8.06, 8.06, 7.2, 7.2, 7.2, 7.2, 7.2, 7.53, 6.94, 7.21, 7.42, 8.0, 6.71, 3.72, 0.99, 1.2, 3.2, 3.58, -0.0, -0.0, -2.21, -0.0, 2.21, 3.13, 3.13, 3.58, 4.02, 3.48, 0.95, -0.0, -0.0, 0.85, 1.84, 3.45, 4.74, 6.32, 6.01, 3.99, 0.89, 7.1, 7.55, 7.55, 7.57, 7.59, 7.6, 7.33, 7.6, 7.86, 7.55, 7.44, 6.87, 8.43, 8.58, 8.3, 8.72, 8.0, 8.21, 8.4, 7.15, 4.37, 1.49, 1.73, 0.0, -0.96, 0.0, 0.0, 0.0, 0.0, 0.95, 0.89, 1.73, 1.84, 1.96, 1.58, 1.58, 1.67, 2.83, 2.59, 3.25, 5.29, 6.18, 7.06, 7.82, 8.17, 8.29, 8.45, 8.49, 8.94, 9.39, 9.35, 9.24, 9.24, 9.06, 9.06, 9.24, 9.21, 8.77, 8.77, 8.29, 7.53, 7.2, 6.99, 7.2, 7.2, 7.2, 7.12, 7.12, 7.53, 7.12, 6.88, 4.77, 0.0, -2.48, -1.27, 0.0, 2.68, -0.0, -3.13, -2.68, 1.34, 3.13, 2.21, 2.53, 2.84, 1.99, 0.95, -0.0, -0.0, -0.0, 0.94, 2.69, 3.45, 5.36, 6.32, 6.01, 2.67, -0.0, 7.1, 7.53, 7.55, 7.57, 7.59, 7.6, 7.61, 7.61, 7.59, 7.55, 6.92, 6.52, 8.18, 8.58, 8.99, 8.72, 8.4, 8.21, 7.81, 8.43, 6.79, 3.72, 1.98, 0.0, 0.0, 0.0, 0.0, 0.0, 0.0, 0.0, 1.73, 2.67, 4.68, 5.24, 3.72, 0.96, 0.0, -1.27, 0.0, 0.89, 2.54, 6.01, 5.95, 7.12, 7.37, 7.6, 7.6, 8.0, 8.45, 8.9, 8.9, 9.24, 9.24, 9.21, 9.24, 9.24, 8.77, 8.33, 8.33, 7.85, 7.12, 6.6, 6.6, 6.6, 6.8, 6.8, 6.99, 6.57, 6.99, 6.57, 5.24, 3.79, -0.0, -2.68, -2.68, -0.0, -0.0, -0.0, -2.8, -3.58, 2.68, -0.0, 1.41, 1.19, 0.96, 1.01, -0.0, -0.0, -0.0, -0.0, 0.94, 2.69, 4.5, 6.32, 6.32, 4.68, 1.84, -0.0, 7.1, 7.1, 7.55, 7.57, 7.59, 7.33, 7.61, 7.61, 7.6, 7.27, 6.92, 6.28, 8.18, 8.4, 9.63, 8.72, 9.24, 8.99, 8.21, 8.24, 8.55, 7.63, 5.73, 5.36, 6.26, 5.21, 4.11, 2.4, 0.0, 0.0, 0.0, 2.67, 5.1, 7.06, 6.79, 3.6, -1.6, -5.94, -5.58, -1.99, 0.0, 4.92, 5.81, 6.51, 6.8, 6.21, 7.2, 7.76, 7.76, 9.03, 9.03, 8.33, 8.77, 8.9, 8.9, 8.9, 8.45, 8.44, 8.0, 7.37, 6.57, 6.57, 6.21, 6.21, 6.6, 6.6, 6.6, 6.57, 6.57, 5.58, 4.89, 4.11, 2.76, 1.05, 1.14, 1.14, 2.2, 1.6, -1.6, -4.09, -2.84, -0.0, -0.0, -0.0, -0.0, -0.0, 0.95, 1.01, -0.0, -0.0, 0.79, 3.09, 4.74, 5.82, 5.53, 2.83, 0.89, 0.89, 7.1, 7.1, 7.13, 7.57, 7.32, 7.33, 7.33, 7.33, 7.6, 7.27, 6.64, 6.01, 7.51, 8.6, 9.6, 8.55, 8.95, 8.95, 8.55, 8.4, 9.24, 8.8, 8.05, 7.12, 6.8, 7.89, 6.4, 5.58, 6.26, 3.72, 1.58, 1.4, 4.83, 7.67, 6.94, 5.09, 0.96, -2.2, -4.8, -3.48, -0.0, 1.63, 3.4, 4.83, 4.37, 5.86, 6.73, 7.81, 7.82, 9.04, 8.06, 8.48, 8.77, 8.9, 8.94, 8.49, 8.49, 8.05, 7.15, 7.08, 5.94, 5.94, 6.0, 5.15, 5.84, 6.55, 7.53, 6.88, 6.0, 5.6, 4.98, 4.11, 2.99, 1.98, 1.98, 2.6, 3.49, 2.73, -0.0, -3.48, -4.0, -1.8, -0.0, -0.0, -0.0, 0.88, 1.7, 1.03, 0.95, 0.95, 1.63, 3.2, 4.5, 4.5, 3.6, 1.95, 0.89, 0.89, 7.1, 6.88, 7.13, 7.31, 7.32, 7.59, 7.6, 7.61, 7.32, 6.98, 6.35, 5.72, 7.9, 7.4, 7.4, 7.4, 7.87, 8.18, 7.81, 7.96, 8.91, 8.49, 6.88, 5.84, 5.37, 6.63, 5.69, 5.69, 7.47, 7.6, 4.11, 4.02, 3.48, 5.58, 5.58, 5.49, 3.97, -0.0, -0.0, 1.49, 1.58, 2.99, 2.99, 4.37, 5.31, 5.69, 6.95, 8.18, 7.81, 8.21, 9.04, 8.33, 8.9, 9.39, 8.94, 8.9, 8.0, 7.1, 6.71, 5.81, 5.26, 4.29, 4.43, 4.58, 6.11, 7.42, 8.06, 7.54, 6.17, 5.73, 5.26, 4.0, 2.48, 1.8, 1.98, 3.16, 3.48, 2.2, 1.19, -0.0, -2.48, -2.98, -1.4, -0.0, -0.0, 0.98, 2.0, 1.05, 0.81, 1.7, 2.6, 2.35, 3.09, 3.45, 2.69, 1.75, 1.75, 1.75, 7.1, 6.88, 7.13, 6.9, 7.57, 7.59, 7.6, 7.61, 7.61, 6.98, 6.69, 6.35, 6.64, 6.87, 7.74, 6.64, 6.11, 5.82, 6.01, 5.94, 5.81, 5.21, 4.29, 2.82, 2.82, 3.2, 3.2, 3.2, 6.08, 6.94, 4.43, -0.0, 1.58, 2.99, 5.1, 6.44, 4.56, 2.82, 2.83, 4.0, 4.68, 4.42, 4.58, 5.06, 5.49, 5.37, 6.55, 7.2, 8.21, 8.72, 9.06, 9.35, 9.39, 9.35, 9.06, 8.56, 7.53, 6.45, 5.51, 4.47, 3.16, 2.8, 3.8, 4.5, 6.73, 8.8, 9.24, 7.15, 5.75, 5.26, 4.92, 3.58, 2.8, 2.4, 2.24, 2.24, 1.6, 1.27, 1.08, 0.81, -0.0, -0.0, -2.68, -2.24, 1.79, -0.0, 1.2, 0.99, 1.13, 1.8, 1.99, 1.72, 1.84, 2.69, 1.84, 1.84, 1.84, 2.54, 6.88, 7.13, 7.13, 6.9, 7.57, 7.59, 7.33, 7.33, 7.33, 7.32, 6.98, 6.98, 7.9, 8.08, 9.81, 8.18, 6.79, 3.09, 1.73, 0.6, 0.96, 1.05, 2.16, 2.32, 1.63, -0.0, -0.0, -0.0, 3.0, 3.97, 3.4, 2.82, 3.2, 3.97, 5.06, 6.79, 6.32, 5.46, 5.36, 6.32, 6.45, 6.18, 5.49, 6.08, 4.56, 4.58, 5.49, 6.6, 8.06, 8.29, 8.77, 8.77, 8.9, 8.49, 8.29, 7.2, 5.69, 4.74, 3.16, 1.4, 0.95, 1.84, 3.32, 5.21, 7.76, 9.77, 9.35, 7.12, 4.11, 4.29, 3.72, 2.97, 2.68, 2.4, 1.58, 0.0, 1.34, -0.0, -0.0, 0.96, 1.83, 2.23, 1.79, -2.21, -1.9, 0.0, 1.34, 1.79, 1.58, 0.99, 0.98, 1.14, 2.12, 1.84, 1.95, 1.75, 1.95, 2.83, 6.88, 7.13, 7.13, 6.9, 7.57, 7.59, 7.33, 7.6, 7.61, 7.61, 7.32, 7.32, 8.22, 9.02, 9.63, 9.51, 8.67, 7.07, 4.92, 3.39, 2.5, 1.9, 1.9, 2.8, -0.0, -0.0, -1.7, -0.54, -0.0, 1.98, 4.29, 4.22, 4.87, 5.49, 6.18, 6.55, 6.39, 7.06, 7.15, 7.82, 7.6, 6.6, 5.58, 4.74, 3.0, 3.22, 4.56, 6.44, 6.44, 6.9, 6.21, 6.6, 5.49, 4.43, 4.4, 4.77, 3.22, 1.03, -1.6, -1.98, -0.0, 1.69, 3.36, 5.06, 6.83, 8.73, 7.53, 2.99, 0.0, 1.05, 2.0, 2.23, 2.23, 1.41, 0.0, -2.21, -3.58, -3.2, -2.21, -0.0, 2.48, 2.73, -0.0, -3.13, -2.8, -2.21, -2.8, -2.24, -0.0, -0.0, -0.0, -0.0, 0.88, 1.98, 1.96, 1.84, 2.99, 2.82, 7.13, 7.13, 7.13, 6.9, 7.57, 7.32, 7.59, 7.6, 7.33, 7.33, 7.61, 7.61, 7.93, 8.5, 9.86, 11.31, 11.56, 11.05, 9.83, 8.05, 6.23, 4.44, 3.53, 1.58, -0.0, -1.0, -1.49, -1.26, -0.6, -0.0, 2.95, 4.58, 4.58, 5.84, 6.18, 6.11, 6.79, 7.82, 7.76, 8.06, 7.53, 6.57, 4.54, 1.99, 1.52, 1.63, 3.2, 4.56, 4.56, 4.83, 4.29, 3.47, 1.72, -0.0, -0.0, 1.63, 4.92, 0.0, -4.34, -3.45, -0.82, 1.69, 3.65, 4.4, 4.92, 5.14, 3.2, 0.0, -1.84, 0.0, 0.0, 0.0, 0.0, -1.41, -3.13, -2.84, -3.35, -3.82, -2.68, -1.79, -0.0, -0.0, -0.0, -0.0, -0.0, -3.13, -4.02, -3.13, -1.9, -1.58, -1.79, -0.0, -0.0, 0.96, 1.84, 2.8, 3.0, 2.12, 7.13, 6.9, 6.9, 6.9, 7.57, 7.57, 7.59, 7.6, 7.33, 7.61, 7.61, 7.93, 7.93, 8.5, 9.37, 10.83, 11.82, 12.04, 10.96, 9.77, 8.03, 6.26, 4.92, 3.07, 0.6, -0.6, -0.95, -0.63, -0.63, -0.0, 0.57, 2.76, 5.37, 5.49, 5.37, 6.11, 6.44, 7.76, 7.85, 8.0, 7.1, 5.4, 3.47, 1.52, -0.0, -0.0, 2.16, 3.2, 3.4, 3.6, 2.99, 1.49, -0.0, -0.0, 1.49, 2.64, 5.37, 5.36, -0.0, -2.69, -0.85, 1.28, 2.82, 2.6, 2.59, 2.59, 1.58, -0.0, -1.84, -0.96, -0.96, -1.84, -3.48, -3.82, -2.16, -1.03, -0.0, -1.27, -3.58, -3.13, -2.68, -1.4, -1.4, -0.0, 0.96, 1.08, -0.0, -1.6, -0.99, -1.2, -2.68, -3.13, -1.2, -0.0, 2.23, 2.95, 3.22, 2.16, 6.9, 6.9, 6.9, 6.9, 7.57, 7.57, 7.59, 7.59, 7.6, 7.33, 7.95, 8.24, 8.24, 8.5, 9.08, 9.86, 11.08, 10.91, 11.08, 10.04, 9.23, 7.97, 6.68, 4.47, 2.24, 0.63, -0.0, -0.0, 0.45, -0.0, 0.6, 1.61, 4.29, 5.37, 5.03, 5.59, 7.81, 7.2, 8.85, 6.64, 5.51, 3.47, 1.98, -0.0, -0.0, -0.0, 1.63, 1.63, 1.63, 3.2, 3.4, 3.2, 1.73, 1.73, 3.2, 4.29, 6.08, 4.84, 5.06, 1.39, -0.0, 1.4, 1.4, 2.83, 2.58, 2.58, 2.83, 4.56, 4.8, 0.0, -1.98, -4.29, -3.93, -1.96, -0.0, 0.89, 1.84, 1.03, -1.6, -4.02, -4.02, -4.02, -3.13, -2.24, -0.0, 1.99, 1.99, -0.0, -0.0, -0.0, -2.53, -4.02, -2.68, -0.0, 2.8, 2.23, 1.19, 1.19, 6.9, 6.9, 6.9, 6.9, 7.57, 7.57, 7.59, 7.59, 7.6, 7.96, 8.24, 7.95, 8.53, 8.82, 8.82, 9.37, 10.13, 10.16, 10.21, 9.7, 8.96, 8.21, 7.4, 5.7, 4.02, 3.09, 2.6, 2.24, 1.79, 1.34, 1.26, 1.88, 2.51, 4.29, 4.14, 4.26, 6.01, 6.6, 7.06, 5.21, 1.99, 1.03, 1.4, 1.4, 1.32, 1.63, 1.63, 1.63, 1.63, 3.0, 3.0, 3.2, 3.2, 3.2, 3.72, 5.58, 5.72, 6.08, 6.01, 4.0, 1.73, 3.2, 3.0, 3.2, 3.4, 3.6, 3.72, 6.01, 7.89, 5.94, -1.08, -4.0, -2.82, -0.89, -0.0, 1.84, 3.45, 3.77, 1.19, -3.13, -4.4, -4.4, -4.4, -3.82, -3.13, 2.24, 2.48, 1.19, 0.96, 1.05, -0.0, -3.13, 1.34, 1.58, 1.58, -0.0, -0.0, -0.0, 6.9, 6.9, 6.9, 7.16, 7.16, 7.57, 7.32, 7.59, 7.59, 7.96, 7.96, 8.24, 8.53, 8.53, 8.82, 9.02, 9.3, 9.63, 9.88, 9.51, 9.21, 8.0, 7.26, 6.16, 5.34, 5.36, 4.92, 3.98, 2.97, 1.79, 1.24, 1.16, 1.6, 3.2, 1.73, 2.4, 2.67, 3.4, 3.2, 1.4, -0.0, -0.0, 1.49, 0.89, 1.49, 2.82, 2.82, 3.2, 3.0, 3.47, 3.47, 3.47, 4.74, 4.74, 4.74, 5.72, 5.72, 5.72, 5.37, 5.37, 4.29, 4.43, 4.11, 4.84, 5.21, 4.29, 5.72, 6.8, 6.8, 5.81, 3.58, -2.47, -0.94, -0.0, 0.94, 3.45, 4.5, 3.6, 3.0, 1.27, -2.68, -4.24, -4.77, -4.02, -4.02, -3.13, -0.0, -0.0, -0.0, 1.05, -0.99, -2.68, -1.9, -0.0, -0.0, -0.0, -0.0, -0.0, 6.46, 6.9, 6.9, 7.16, 7.16, 7.57, 7.57, 7.59, 7.96, 8.24, 7.96, 8.24, 8.56, 8.53, 8.5, 8.78, 9.3, 9.76, 9.63, 9.2, 9.21, 8.48, 7.26, 6.61, 6.16, 5.7, 5.09, 4.4, 3.07, 1.34, 1.2, 1.16, 1.33, 1.27, 0.61, -0.0, -0.0, -0.0, -0.0, -0.0, -0.0, -0.0, -0.0, 1.49, 2.82, 4.14, 5.69, 5.37, 4.74, 3.47, 3.47, 3.47, 4.43, 4.74, 4.74, 5.72, 5.72, 5.72, 5.72, 5.72, 6.4, 6.0, 5.51, 5.51, 5.81, 4.82, 5.26, 6.94, 7.37, 7.37, 5.37, 2.83, 1.75, 2.54, 2.83, 4.5, 4.5, 3.8, 2.83, 2.82, 2.16, 1.08, -1.08, -2.84, -2.84, -2.84, -2.48, -1.08, -0.0, 1.19, 1.41, -1.6, -2.0, -0.0, -0.0, -0.0, -0.0, -0.0, 6.46, 6.9, 7.16, 7.16, 7.16, 7.57, 7.57, 7.59, 7.96, 7.96, 8.24, 8.58, 8.56, 8.85, 8.22, 9.89, 8.45, 8.73, 8.55, 8.8, 9.42, 9.01, 7.71, 7.76, 6.57, 6.4, 1.61, 3.35, 2.68, 0.57, 0.53, 1.16, 1.16, 1.16, -0.0, -0.57, -0.63, -0.57, -0.0, -0.0, -0.0, 1.03, 1.73, 2.82, 4.37, 6.01, 6.63, 6.08, 5.06, 3.0, 3.0, 3.0, 4.74, 4.74, 5.06, 5.72, 5.72, 5.72, 5.72, 6.64, 6.51, 6.51, 6.07, 4.92, 4.92, 4.92, 5.36, 6.2, 6.94, 8.91, 9.32, 8.38, 8.79, 7.51, 6.55, 4.87, 3.77, 2.83, 2.69, 2.83, 2.99, 1.96, -0.0, -0.0, -0.0, -2.4, -3.48, -3.35, -1.27, 1.13, 2.2, -0.0, -1.03, -0.0, -0.0, 0.96, -0.0, -0.0, 6.46, 6.9, 7.16, 7.16, 7.16, 7.57, 7.57, 7.57, 8.23, 7.96, 8.24, 8.58, 8.87, 8.56, 8.53, 7.9, 7.86, 7.55, 8.64, 8.38, 9.04, 7.72, 6.87, 7.06, 6.6, 4.29, 1.4, -0.0, -0.0, 0.53, 1.0, 1.2, 1.61, 1.16, -0.0, -0.0, -0.51, -0.59, -0.59, -0.0, -0.0, 1.11, 1.76, 2.4, 3.22, 6.63, 6.9, 6.08, 3.0, 1.63, 3.0, 3.2, 4.29, 4.29, 3.91, 4.74, 6.08, 5.21, 6.16, 7.45, 6.71, 6.26, 6.26, 6.26, 4.92, 4.92, 5.36, 6.17, 7.37, 8.06, 9.24, 11.11, 11.36, 10.14, 8.0, 5.94, 2.99, 1.84, 2.83, 2.83, 3.4, 2.67, 2.67, 1.73, 0.95, -0.0, -0.98, -2.53, -2.97, -1.2, -0.0, -0.0, -0.0, -0.0, 0.89, 1.98, 2.16, 2.16, 6.25, 7.16, 7.16, 7.16, 7.16, 7.57, 7.57, 7.57, 8.23, 8.23, 8.58, 8.58, 8.87, 8.56, 8.56, 8.82, 8.19, 7.27, 6.95, 7.48, 7.27, 4.47, 5.1, 5.69, 5.75, 4.34, 2.24, 0.99, 0.65, 1.2, 1.2, 1.9, 1.9, 1.2, 0.53, -0.0, -0.0, -0.0, -0.0, -0.0, 0.59, 1.11, 1.57, 2.18, 2.82, 5.59, 5.69, 4.29, 1.73, 1.4, 1.4, 2.82, 2.82, 4.56, 4.56, 4.74, 5.49, 5.82, 7.94, 7.6, 6.71, 6.26, 6.26, 5.81, 4.92, 4.92, 4.82, 5.73, 6.88, 7.63, 9.49, 10.7, 11.05, 9.06, 6.45, 4.02, -0.0, 1.03, 1.96, 2.67, 2.67, 3.4, 2.99, 2.35, 1.96, 1.84, 1.98, -0.0, -0.96, -3.35, -2.0, -0.0, -0.0, -0.0, 0.88, 2.4, 2.76, 2.76, 6.25, 6.92, 6.92, 6.92, 6.92, 7.32, 7.57, 7.57, 8.23, 8.23, 8.59, 8.87, 8.58, 8.56, 8.56, 8.53, 7.9, 7.59, 7.59, 7.23, 5.65, 3.22, 2.8, 4.47, 5.88, 6.1, 5.34, 4.02, 2.6, 1.86, 1.58, 1.58, 1.58, 1.24, 0.54, 0.53, -0.0, -0.0, -0.0, -0.0, -0.0, 0.63, 1.08, 1.73, 2.16, 3.47, 5.69, 3.0, 1.4, 1.49, 1.49, 2.99, 3.91, 3.91, 4.56, 5.37, 5.84, 6.55, 7.94, 7.15, 5.51, 5.4, 4.98, 4.77, 4.47, 4.47, 4.77, 5.26, 5.94, 7.47, 9.46, 9.26, 4.4, 0.0, 0.0, -1.79, -0.99, -0.0, -0.0, 0.83, 1.84, 2.67, 2.67, 1.95, 2.83, 2.83, 2.83, 1.95, 0.79, -3.79, -3.48, -2.0, -0.88, -0.0, 0.88, 2.53, 2.99, 2.99, 6.5, 6.5, 6.5, 6.92, 6.92, 7.32, 7.32, 7.57, 8.23, 8.23, 8.59, 8.87, 8.87, 8.87, 8.56, 8.24, 8.22, 7.86, 7.86, 8.15, 7.9, 5.75, 3.2, 3.47, 4.47, 6.41, 6.3, 5.24, 3.58, 2.24, 2.12, 1.86, 1.86, 1.26, 0.71, 0.54, -0.0, -0.0, -0.0, -0.0, 0.57, 0.55, 1.08, 1.19, 1.7, 2.36, 2.82, 1.4, -0.0, 1.32, 1.32, 2.99, 4.14, 4.14, 4.14, 4.83, 5.37, 6.11, 7.28, 5.36, 4.65, 3.79, 3.48, 3.82, 3.58, 3.82, 4.34, 4.77, 5.4, 5.94, 7.89, 3.72, -6.45, -5.21, -3.48, -2.68, -2.98, -2.23, -1.7, -0.78, -0.0, 0.94, 0.89, 1.75, 2.69, 2.69, 1.84, 1.84, 2.69, 1.95, -3.48, -3.58, -2.84, -0.0, -0.0, 1.8, 1.83, 1.83, 6.5, 6.5, 6.5, 6.92, 6.92, 7.32, 7.32, 7.57, 8.23, 8.23, 8.59, 8.59, 8.87, 8.58, 8.56, 7.95, 7.93, 7.9, 7.86, 7.86, 8.29, 7.76, 5.37, 3.79, 4.12, 5.35, 5.49, 5.08, 4.11, 3.07, 2.24, 2.17, 1.7, 1.6, 1.26, 0.71, 0.54, 0.53, -0.0, 0.59, 0.57, 0.63, 1.08, 1.23, 1.23, 0.55, -0.0, -0.0, -0.0, 1.32, 1.4, 3.8, 4.14, 4.14, 4.14, 4.14, 4.58, 5.37, 6.01, 6.36, 2.84, 2.48, 1.6, 2.68, 1.6, 2.48, 3.48, 5.21, 4.98, 6.17, 6.64, -2.2, -6.26, -5.4, -5.09, -5.36, -4.84, -3.47, -4.29, -2.35, -0.83, -0.0, -0.0, 1.65, 2.54, 2.69, 2.69, 2.69, 3.45, 3.8, -0.0, -4.0, -3.9, -2.21, -0.0, -0.0, 0.88, 0.88, 6.5, 6.5, 6.5, 6.92, 6.92, 6.92, 7.59, 7.85, 8.23, 8.23, 8.59, 8.59, 8.87, 8.58, 8.24, 7.95, 7.93, 8.22, 7.9, 7.86, 8.15, 8.55, 7.61, 5.75, 4.71, 4.71, 4.94, 5.21, 4.0, 3.39, 2.63, 2.24, 2.24, 1.7, 1.6, 1.26, 0.71, 0.65, 0.61, 0.59, 0.57, 1.23, 1.76, 1.76, 1.13, -0.0, -0.0, -0.0, -0.0, 0.54, 1.16, 2.69, 2.99, 2.69, 3.8, 5.03, 5.69, 4.74, 4.83, 5.37, 4.8, 3.13, 2.68, -0.0, 1.19, 1.99, 4.11, 4.98, 5.4, 6.26, 7.15, 5.73, -4.47, -6.0, -5.94, -5.81, -5.51, -4.89, -5.69, -3.77, -2.51, -1.63, -0.0, 0.79, 1.95, 1.95, 2.54, 3.45, 3.8, 3.91, 4.68, -0.0, -2.98, -3.72, -1.8, -0.0, -0.0, -0.0, 6.27, 6.27, 6.27, 6.92, 6.92, 7.19, 7.59, 7.85, 8.23, 8.23, 8.59, 8.59, 8.87, 8.58, 8.24, 7.95, 7.61, 7.61, 7.9, 8.19, 7.86, 8.15, 8.0, 7.23, 6.03, 4.94, 4.37, 4.65, 4.37, 3.35, 2.91, 2.6, 2.24, 1.79, 1.7, 1.26, 0.99, 0.54, 0.53, 0.59, 0.57, 1.23, 1.76, 2.22, 1.61, -0.0, -0.0, -0.0, -0.0, -0.0, 0.59, 1.16, 2.54, 2.69, 4.0, 5.59, 5.69, 4.56, 4.56, 5.69, 6.44, 5.58, 3.16, 1.05, 0.96, 1.98, 3.91, 4.89, 6.17, 6.26, 6.71, 8.05, 4.02, -2.53, -6.0, -6.94, -7.11, -6.4, -5.84, -5.37, -3.77, -2.35, -0.78, -0.0, 0.79, 1.84, 2.83, 3.8, 4.26, 3.4, 3.6, 2.6, -0.0, -0.96, -0.81, -0.0, -0.0, -0.0, 6.27, 6.27, 6.27, 6.68, 7.19, 7.59, 7.59, 7.59, 8.23, 8.23, 8.59, 8.59, 8.87, 8.58, 8.24, 7.95, 7.61, 7.61, 7.6, 7.6, 7.59, 7.81, 8.08, 7.64, 7.07, 6.03, 5.21, 4.65, 4.07, 4.0, 3.6, 3.2, 2.91, 2.17, 1.79, 1.79, 1.6, 1.24, 1.2, 1.16, 1.13, 1.76, 2.2, 2.86, 2.21, 0.6, -0.0, -0.0, -0.0, -0.0, 0.59, 1.16, 1.7, 1.7, 3.77, 4.68, 5.31, 3.91, 3.97, 4.58, 7.28, 6.21, 6.08, 2.8, 2.82, 3.0, 4.74, 6.0, 6.45, 6.2, 6.71, 6.71, 6.71, 5.36, 0.0, -4.47, -7.6, -7.45, -7.53, -6.18, -5.37, -3.72, -1.6, -0.0, -0.0, 0.83, 2.67, 4.26, 3.6, 2.67, 2.26, 2.4, 1.96, 0.89, -0.0, -0.0, -0.0, -0.0, 6.53, 6.53, 6.53, 6.94, 7.19, 7.59, 7.59, 7.59, 7.59, 8.23, 8.59, 8.87, 8.58, 8.58, 8.24, 7.95, 7.61, 7.61, 7.32, 7.6, 7.59, 7.55, 7.55, 7.73, 7.72, 6.7, 5.86, 5.86, 5.21, 4.65, 4.0, 3.72, 3.07, 2.49, 2.17, 1.79, 1.7, 1.26, 1.24, 1.2, 1.33, 1.58, 2.2, 2.86, 2.51, 1.6, 0.45, -0.0, -0.0, -0.0, 1.14, 1.7, 1.88, 2.2, 2.4, 4.42, 5.03, 4.14, 3.55, 4.87, 6.21, 6.57, 5.58, 3.97, 3.77, 4.14, 5.95, 6.45, 6.64, 7.15, 7.15, 7.15, 7.15, 6.71, 5.6, 2.2, -2.95, -6.88, -7.85, -7.12, -6.6, -3.09, -1.61, -0.88, -0.0, 0.76, 2.47, 3.77, 2.67, 1.84, 2.67, 2.67, 2.83, 2.4, 2.26, 1.52, 1.83, 1.83, 6.53, 6.53, 6.94, 6.94, 6.94, 7.59, 7.59, 7.59, 7.96, 7.96, 8.87, 8.87, 8.58, 8.56, 8.24, 7.95, 8.24, 7.61, 7.32, 7.3, 7.59, 7.55, 7.23, 7.51, 7.44, 7.44, 6.79, 6.15, 5.49, 5.21, 4.65, 4.0, 3.35, 3.07, 2.63, 2.24, 2.24, 2.12, 1.58, 1.61, 1.61, 1.8, 1.76, 2.64, 2.64, 2.79, 1.6, -0.0, 0.56, 0.57, 1.67, 1.7, 2.4, 2.2, 2.86, 2.86, 4.56, 4.14, 4.42, 5.37, 6.18, 6.21, 5.49, 5.15, 4.68, 5.84, 6.6, 6.88, 7.15, 6.94, 7.1, 7.1, 7.1, 6.26, 4.11, 0.95, -0.0, -1.14, -6.0, -7.37, -7.12, -3.35, -2.21, -1.2, -0.0, -0.0, 1.7, 3.0, 2.64, 2.64, 2.64, 2.64, 3.33, 3.2, 3.2, 3.2, 2.47, 2.47, 6.53, 6.53, 6.94, 6.94, 6.94, 7.33, 7.59, 7.59, 7.96, 8.24, 8.24, 8.58, 8.58, 8.56, 8.24, 7.95, 8.24, 7.61, 7.6, 7.3, 7.27, 7.55, 7.23, 7.51, 7.51, 7.44, 6.87, 6.79, 6.15, 5.49, 5.21, 4.65, 4.0, 3.6, 3.32, 2.63, 2.24, 2.17, 2.23, 1.9, 1.88, 1.84, 1.8, 1.76, 2.4, 4.19, 2.99, 1.14, 1.76, 2.32, 3.08, 2.84, 2.84, 2.86, 2.86, 3.15, 2.86, 3.48, 5.06, 5.37, 6.18, 6.18, 6.11, 5.69, 6.18, 6.18, 6.6, 7.89, 6.26, 6.0, 5.95, 6.45, 6.71, 5.36, -0.0, -1.98, -0.0, -0.0, -1.03, -5.24, -6.88, -3.44, -2.91, -1.58, -0.43, -0.0, 0.88, 2.53, 3.48, 3.48, 2.95, 2.99, 2.6, 3.77, 3.2, 3.2, 3.2, 3.2, 6.53, 6.53, 6.94, 6.94, 6.94, 7.33, 7.33, 7.87, 8.24, 8.24, 8.24, 8.58, 8.87, 8.56, 7.95, 8.24, 7.93, 7.32, 7.3, 6.97, 6.97, 7.55, 7.23, 7.51, 7.51, 7.44, 7.44, 6.79, 6.51, 6.15, 5.86, 5.21, 4.93, 4.27, 3.6, 3.39, 2.68, 2.68, 2.4, 2.5, 2.21, 2.23, 1.84, 1.8, 1.8, 3.91, 3.97, 3.04, 3.47, 3.22, 3.49, 3.2, 3.48, 2.86, 3.48, 3.48, 3.48, 3.43, 3.78, 5.15, 6.18, 6.55, 7.2, 6.82, 6.8, 6.57, 6.57, 7.47, 6.94, 5.94, 4.77, 5.81, 6.45, 5.26, -1.6, -4.89, -2.8, -0.0, -0.0, -2.12, -5.2, -6.26, -3.13, -2.63, -1.27, -0.0, 0.6, 3.6, 4.57, 4.38, 2.98, 2.23, 2.53, 2.6, 3.33, 3.2, 3.2, 3.2, 6.53, 6.53, 6.94, 6.94, 6.94, 7.6, 7.6, 7.6, 7.96, 8.24, 8.24, 8.24, 8.87, 8.56, 8.24, 8.24, 7.93, 7.6, 7.3, 6.97, 6.95, 7.23, 7.55, 7.23, 7.51, 7.51, 7.44, 7.15, 7.76, 5.93, 5.65, 5.59, 4.94, 4.55, 4.27, 3.87, 3.53, 3.13, 3.07, 2.91, 2.5, 2.53, 2.23, 2.51, 2.23, 2.51, 3.43, 4.07, 4.07, 3.48, 3.48, 3.48, 3.48, 3.48, 3.48, 3.48, 3.78, 3.78, 3.72, 4.27, 6.21, 7.2, 7.2, 6.94, 7.53, 6.94, 6.64, 7.45, 7.37, 6.94, 4.98, 5.58, 7.28, 7.89, -0.0, -5.4, -4.98, -3.22, -1.84, -0.82, -2.76, -4.85, -5.81, -2.68, -1.7, -0.45, 0.89, 2.24, 5.81, 4.92, 3.58, 1.2, 1.08, 1.7, 3.33, 3.33, 3.2, 3.2, 6.53, 6.53, 6.94, 6.94, 6.94, 7.6, 7.6, 7.6, 7.96, 7.96, 7.96, 8.54, 8.56, 8.56, 8.24, 7.93, 7.6, 7.59, 7.27, 6.97, 7.55, 7.55, 7.55, 7.55, 7.85, 7.51, 7.44, 7.44, 6.79, 7.41, 4.45, 4.45, 4.43, 4.65, 4.17, 4.11, 3.53, 3.58, 3.07, 2.91, 3.07, 2.79, 2.84, 2.84, 2.84, 3.35, 3.35, 3.88, 3.88, 3.43, 3.43, 3.78, 3.78, 3.78, 3.78, 4.0, 4.0, 4.0, 4.27, 4.27, 4.8, 7.12, 8.48, 7.12, 7.37, 7.08, 6.2, 6.17, 7.45, 7.47, 6.18, 6.55, 7.12, 8.0, 5.36, -3.6, -5.94, -4.98, -3.58, -2.68, -1.66, -2.84, -4.47, -4.85, -2.0, -0.57, 0.42, 2.15, 6.17, 5.81, 4.02, -0.0, -0.0, 0.88, 1.7, 2.82, 3.0, 3.0, 6.29, 6.29, 6.94, 6.94, 7.22, 7.6, 7.6, 7.6, 7.96, 8.24, 8.24, 8.24, 8.56, 8.56, 8.24, 8.22, 7.6, 7.59, 7.27, 7.27, 7.55, 7.55, 7.55, 7.55, 7.55, 7.51, 7.51, 7.51, 7.44, 7.23, 5.59, 4.43, 4.12, 4.11, 4.37, 3.88, 3.87, 3.58, 3.58, 3.53, 3.39, 3.45, 3.35, 3.43, 3.72, 3.88, 4.11, 4.11, 3.72, 3.72, 3.43, 3.43, 3.43, 3.43, 3.43, 4.0, 4.27, 4.27, 4.27, 4.4, 7.47, 6.9, 6.9, 7.47, 6.45, 6.45, 6.17, 5.73, 6.94, 7.06, 6.21, 7.89, 7.89, 7.6, 8.0, 4.4, -3.82, -5.81, -4.92, -3.6, -1.98, -1.13, -2.98, -4.02, -3.6, -1.2, 0.0, 1.88, 5.59, 5.81, 4.47, -0.0, -1.4, -0.0, 0.88, 2.47, 2.64, 2.64, 6.29, 6.29, 6.29, 6.96, 6.96, 6.96, 7.6, 7.6, 8.24, 8.24, 8.24, 8.24, 8.56, 8.56, 8.24, 8.22, 7.6, 7.59, 7.27, 7.27, 7.55, 7.55, 7.81, 7.81, 7.81, 8.08, 7.51, 7.51, 8.0, 7.9, 7.48, 5.86, 4.71, 3.79, 3.73, 3.88, 3.87, 3.53, 3.58, 3.53, 3.39, 3.6, 3.88, 4.27, 4.6, 4.19, 4.11, 3.7, 3.6, 3.35, 3.35, 3.72, 3.72, 3.72, 3.72, 3.88, 4.27, 4.27, 4.4, 4.6, 4.8, 7.28, 7.28, 7.63, 7.47, 7.45, 5.94, 5.94, 5.94, 5.94, 6.02, 7.47, 8.38, 8.0, 8.29, 7.85, 4.47, -3.82, -5.81, -5.36, -3.39, -2.21, -1.13, -2.53, -3.13, -1.0, 0.0, 3.93, 5.36, 5.36, 4.34, 1.4, -1.6, -1.13, -0.0, -0.0, 2.47, 2.47, 6.56, 6.56, 6.56, 6.96, 6.96, 6.96, 7.33, 7.6, 8.24, 8.24, 8.24, 8.24, 8.24, 8.24, 8.24, 8.22, 7.9, 7.59, 7.59, 7.27, 7.55, 7.81, 7.81, 7.81, 8.08, 8.08, 8.08, 7.73, 8.0, 8.0, 8.15, 7.48, 6.28, 5.21, 4.55, 4.27, 4.11, 3.98, 4.02, 3.98, 3.87, 4.11, 4.4, 5.02, 4.6, 4.34, 4.11, 3.7, 3.6, 3.6, 3.35, 3.72, 3.72, 3.72, 3.88, 3.88, 4.27, 4.4, 4.6, 4.6, 4.77, 5.09, 8.06, 7.37, 7.37, 7.94, 6.45, 6.64, 6.2, 6.17, 7.01, 6.45, 8.82, 7.85, 8.45, 8.49, 7.15, 3.6, -4.47, -4.66, -3.9, -2.8, -1.98, -0.98, -1.13, 1.79, 2.68, 4.34, 4.82, 4.4, 4.4, 2.84, -0.0, -2.23, -0.98, -0.0, 1.7, 1.7, 6.56, 6.56, 6.56, 6.96, 6.96, 6.96, 7.33, 7.61, 8.24, 8.24, 8.24, 8.24, 8.24, 8.24, 7.93, 8.22, 7.9, 8.19, 7.59, 7.59, 8.15, 8.15, 8.15, 8.15, 8.08, 8.08, 8.08, 8.08, 7.73, 8.0, 7.9, 7.76, 7.48, 6.8, 6.0, 5.31, 4.8, 4.88, 4.47, 4.47, 4.34, 4.6, 4.8, 6.57, 4.6, 4.6, 4.11, 3.7, 3.6, 3.35, 3.72, 3.43, 4.0, 4.27, 4.27, 4.27, 4.4, 4.6, 4.6, 4.6, 4.8, 5.24, 8.38, 7.54, 7.85, 8.38, 6.64, 6.71, 6.26, 5.81, 5.73, 6.2, 8.38, 9.29, 8.05, 7.54, 6.88, 4.02, -1.27, -3.48, -2.98, -2.98, -2.84, -2.0, -0.0, 0.98, 1.98, 3.72, 4.4, 4.4, 4.4, 2.48, -0.0, -2.48, -1.08, -0.0, -0.0, 0.88, 6.31, 6.31, 6.31, 6.7, 6.96, 7.24, 7.61, 7.61, 7.95, 7.95, 7.95, 8.24, 8.24, 7.93, 7.93, 8.22, 7.9, 8.19, 8.19, 7.86, 7.86, 8.15, 8.15, 8.15, 8.65, 8.08, 8.08, 8.08, 8.08, 8.0, 8.0, 7.9, 8.0, 7.71, 7.09, 6.36, 6.04, 5.78, 5.36, 5.36, 5.33, 4.8, 5.02, 6.57, 5.31, 4.9, 4.6, 4.11, 3.72, 3.43, 4.0, 4.37, 4.55, 4.55, 4.8, 4.8, 4.6, 4.6, 5.09, 5.24, 4.8, 5.24, 8.38, 7.54, 7.55, 8.05, 7.6, 6.26, 5.81, 5.81, 5.73, 7.01, 8.05, 8.0, 7.6, 5.6, 3.48, 1.79, -2.84, -2.84, -1.98, -2.68, -2.95, -1.83, -0.0, 0.98, 2.84, 3.9, 4.34, 3.72, 4.09, 2.48, -0.0, -2.48, -1.08, -0.87, -0.0, -0.0, 6.31, 6.31, 6.31, 6.7, 6.96, 7.24, 7.61, 7.61, 7.95, 7.95, 8.24, 8.24, 7.93, 7.93, 8.22, 8.22, 7.9, 7.9, 8.19, 8.19, 7.86, 8.15, 8.15, 8.38, 8.38, 8.65, 8.65, 8.08, 8.08, 8.0, 8.0, 7.9, 7.76, 7.6, 7.31, 7.26, 6.94, 6.61, 6.23, 5.81, 5.81, 5.33, 5.24, 5.09, 7.12, 5.4, 5.09, 4.27, 4.0, 4.29, 4.93, 5.08, 5.08, 5.31, 4.9, 5.09, 5.09, 5.24, 5.24, 5.24, 5.33, 5.33, 5.78, 8.49, 8.05, 8.05, 6.71, 6.26, 6.17, 5.73, 5.73, 6.26, 8.05, 8.05, 7.45, 2.84, -2.0, -4.34, -4.47, -3.13, -2.98, -3.79, -3.35, -2.53, -0.0, 0.98, 2.84, 3.72, 3.72, 3.16, 3.48, 2.48, -0.0, -2.48, -1.41, -0.0, -0.0, -0.0, 6.31, 6.31, 6.7, 6.97, 6.97, 7.24, 7.61, 7.61, 7.61, 8.24, 8.24, 8.24, 7.93, 8.22, 8.22, 8.22, 7.9, 7.9, 8.19, 8.19, 8.19, 8.19, 8.73, 8.73, 8.73, 8.38, 8.65, 8.65, 8.08, 8.0, 8.0, 7.9, 7.76, 8.0, 7.71, 7.51, 7.26, 7.06, 6.68, 6.26, 5.81, 5.78, 5.34, 5.33, 5.7, 7.85, 5.4, 5.08, 5.47, 5.47, 5.6, 5.81, 5.81, 5.4, 5.57, 5.51, 5.09, 5.24, 5.24, 5.33, 5.33, 5.33, 8.05, 8.05, 8.05, 8.05, 7.15, 7.6, 5.73, 6.17, 6.17, 6.26, 7.6, 7.6, 7.45, 4.47, -3.35, -4.77, -4.34, -3.58, -2.98, -3.35, -4.11, -2.53, -0.0, 0.88, 2.76, 1.99, 2.2, 2.2, 2.2, 1.05, -0.0, -1.41, -2.23, -0.0, -0.0, -0.0, 6.58, 6.58, 6.97, 6.97, 6.97, 6.97, 7.61, 7.61, 7.33, 7.61, 7.93, 7.93, 7.93, 8.22, 8.22, 8.22, 7.9, 7.9, 7.9, 8.19, 8.45, 8.45, 8.45, 8.73, 8.73, 8.73, 8.65, 8.65, 8.29, 8.37, 8.0, 7.9, 7.76, 8.0, 7.71, 7.51, 7.26, 6.94, 7.06, 6.68, 6.26, 6.26, 5.81, 5.78, 5.78, 6.16, 6.47, 6.3, 6.3, 5.88, 5.88, 5.99, 5.99, 5.99, 5.57, 5.7, 5.7, 5.26, 5.34, 5.34, 5.34, 5.36, 5.81, 8.49, 8.38, 8.38, 7.94, 7.6, 6.17, 6.17, 6.26, 6.26, 7.6, 6.26, 7.6, 6.4, 3.72, 2.53, 2.21, 1.6, -0.0, -1.7, -3.63, -2.95, -0.98, -0.0, 1.84, 1.84, 1.05, -0.0, -0.0, 1.05, -0.0, -1.08, -0.0, -0.0, -0.0, -0.0, 6.97, 6.97, 6.97, 6.97, 6.97, 6.97, 7.33, 7.33, 7.61, 7.61, 7.93, 7.93, 8.22, 8.22, 8.22, 8.22, 7.9, 7.9, 7.9, 8.19, 8.78, 8.78, 8.78, 8.73, 8.73, 8.73, 8.38, 8.65, 8.65, 8.55, 8.27, 7.9, 8.15, 8.0, 7.71, 7.51, 7.26, 7.4, 7.06, 6.68, 6.71, 6.26, 6.26, 6.26, 6.26, 6.23, 6.16, 6.6, 6.16, 6.16, 6.16, 6.16, 6.16, 6.16, 6.14, 5.7, 5.78, 5.78, 5.34, 5.78, 5.81, 5.81, 5.81, 8.49, 8.38, 8.38, 8.38, 7.45, 6.2, 6.26, 6.26, 6.64, 6.64, 6.64, 6.71, 6.94, 7.6, 7.2, 6.82, 5.84, 4.19, -0.0, -2.95, -3.16, -1.8, -0.0, 0.96, 1.99, 1.05, -0.0, -0.0, -0.0, -0.0, -1.27, -0.0, -0.0, -0.0, -0.0, 6.97, 6.97, 6.97, 6.97, 6.97, 6.97, 6.97, 7.61, 7.61, 7.61, 7.61, 7.93, 8.22, 8.22, 8.22, 8.22, 7.9, 7.9, 7.9, 8.52, 8.78, 8.78, 8.78, 8.78, 8.73, 8.73, 8.73, 8.65, 8.65, 8.55, 8.27, 7.9, 8.15, 8.0, 7.81, 7.93, 7.69, 7.4, 7.4, 7.06, 6.68, 6.71, 6.71, 6.26, 6.26, 6.23, 6.23, 6.23, 6.23, 6.16, 6.16, 6.16, 6.16, 6.23, 6.23, 5.78, 5.78, 5.81, 5.81, 5.81, 5.81, 5.81, 5.81, 6.26, 8.94, 8.38, 8.38, 7.54, 7.1, 6.71, 7.6, 6.17, 6.64, 6.71, 7.15, 6.94, 7.53, 8.17, 8.17, 7.82, 6.55, 2.68, -2.84, -3.93, -2.41, -1.13, -0.0, 1.08, -0.0, -0.0, -0.0, -0.0, -0.0, -1.6, -0.0, -0.0, -0.0, -0.0, 6.71, 6.71, 6.97, 6.97, 6.97, 6.98, 6.98, 7.32, 7.61, 7.61, 7.61, 7.93, 8.22, 8.22, 8.22, 8.22, 7.9, 7.9, 7.9, 7.9, 8.78, 8.78, 8.78, 9.02, 9.3, 8.73, 9.01, 8.65, 8.29, 8.55, 8.27, 7.9, 8.15, 8.0, 7.81, 8.0, 7.51, 7.69, 7.4, 7.07, 7.13, 7.13, 6.71, 6.71, 6.71, 6.71, 6.68, 6.68, 6.68, 6.23, 6.23, 6.23, 6.23, 6.23, 6.23, 5.81, 5.81, 5.81, 5.81, 5.81, 5.81, 5.81, 5.81, 6.23, 6.26, 9.39, 8.94, 7.6, 7.6, 7.15, 6.64, 6.64, 6.64, 6.71, 7.15, 7.54, 7.85, 8.29, 8.48, 8.17, 7.76, 4.8, -3.35, -4.22, -2.84, -1.98, -0.99, -0.0, -0.0, -0.0, -0.0, -0.0, -0.0, -0.0, -0.0, -0.0, -0.0, -0.0, 6.71, 6.71, 6.71, 6.71, 6.98, 6.98, 6.98, 7.32, 7.32, 7.32, 7.6, 8.22, 8.22, 8.22, 8.22, 8.22, 7.9, 7.9, 7.9, 8.19, 8.78, 8.78, 8.78, 9.3, 9.3, 8.73, 9.01, 8.65, 8.55, 8.55, 8.27, 8.15, 8.15, 8.0, 8.22, 8.0, 7.58, 7.69, 7.4, 7.51, 7.07, 7.13, 7.15, 7.15, 6.71, 6.71, 6.71, 6.71, 6.68, 6.68, 6.23, 6.23, 6.26, 6.26, 6.26, 6.26, 5.81, 5.81, 5.81, 5.81, 5.81, 5.81, 5.79, 6.23, 6.23, 8.94, 8.49, 8.49, 8.05, 7.1, 7.1, 6.64, 6.71, 7.15, 7.15, 7.6, 8.0, 8.44, 8.33, 8.48, 8.17, 4.77, -4.47, -5.29, -4.0, -2.84, -1.98, -1.13, -2.23, -0.0, -0.0, -0.0, -0.0, -0.0, -0.0, -1.27, -1.27, -1.27, 6.98, 6.98, 6.98, 6.98, 6.98, 6.98, 6.98, 7.32, 7.6, 7.6, 7.6, 7.9, 8.22, 8.22, 8.22, 8.22, 7.9, 8.19, 8.19, 8.19, 8.19, 8.78, 9.08, 8.73, 8.73, 9.01, 8.65, 8.93, 8.55, 8.43, 8.27, 8.15, 8.15, 8.0, 8.22, 8.0, 8.0, 7.74, 7.84, 7.4, 7.51, 7.13, 7.13, 7.15, 7.15, 6.71, 6.71, 6.71, 6.71, 6.71, 6.26, 6.26, 6.26, 6.26, 6.26, 6.26, 6.26, 5.81, 5.81, 5.81, 5.78, 5.78, 5.78, 5.79, 6.23, 8.94, 8.49, 8.49, 8.05, 7.15, 7.15, 7.15, 7.15, 7.15, 7.15, 7.15, 7.6, 8.0, 8.29, 8.06, 8.06, 4.77, -3.72, -6.26, -5.51, -3.93, -2.23, -1.98, -2.53, -1.98, -1.19, -0.0, -0.0, -0.0, -0.0, -1.08, -1.08, -1.08, 6.98, 6.98, 6.98, 6.98, 6.98, 6.98, 6.98, 7.6, 7.6, 7.6, 7.6, 7.9, 7.9, 8.22, 8.22, 7.9, 8.19, 8.19, 8.19, 8.19, 8.45, 8.73, 8.73, 8.73, 9.01, 8.65, 8.65, 8.55, 8.55, 8.43, 8.43, 8.15, 8.4, 8.0, 8.22, 8.0, 8.0, 7.74, 7.87, 7.4, 7.51, 7.07, 7.13, 7.13, 7.15, 7.15, 6.71, 6.71, 6.71, 6.71, 6.71, 6.26, 6.26, 6.26, 6.26, 6.26, 6.26, 6.26, 5.78, 5.78, 5.78, 5.78, 5.78, 5.7, 6.14, 8.0, 8.0, 8.05, 8.05, 7.55, 7.54, 6.94, 7.1, 7.08, 7.15, 7.15, 7.15, 7.54, 7.85, 8.06, 8.06, 6.17, 0.0, -5.81, -6.28, -4.54, -1.8, -1.98, -1.98, -2.84, -2.23, -1.41, -0.0, -0.0, -0.0, -0.96, -0.96, -0.96, 6.98, 6.98, 6.98, 7.27, 7.27, 7.27, 7.27, 7.6, 7.6, 7.6, 7.6, 7.9, 7.9, 7.9, 7.9, 8.19, 8.19, 8.19, 8.19, 8.19, 8.45, 8.73, 8.73, 8.65, 8.65, 8.65, 8.93, 8.55, 8.82, 8.43, 8.68, 8.15, 8.4, 8.0, 8.22, 8.0, 8.0, 7.74, 7.74, 7.4, 7.51, 7.51, 7.13, 7.13, 7.13, 7.15, 6.71, 6.71, 6.71, 6.71, 6.71, 6.71, 6.71, 6.26, 6.26, 6.26, 6.23, 6.23, 6.23, 5.78, 5.7, 5.7, 5.7, 5.7, 5.99, 7.85, 8.44, 8.49, 8.0, 7.85, 7.37, 6.57, 6.57, 7.08, 6.71, 6.71, 7.15, 7.1, 7.37, 7.53, 7.12, 7.1, 5.36, -2.84, -6.6, -3.48, -2.0, -1.8, -1.8, -2.84, -2.84, -2.21, -1.4, -0.0, -1.19, -1.05, -1.05, -1.05, 6.98, 6.98, 6.98, 6.98, 7.3, 7.3, 7.3, 7.3, 7.6, 7.6, 7.6, 7.6, 7.9, 7.9, 8.19, 8.19, 8.19, 8.19, 8.19, 8.49, 8.15, 8.38, 8.65, 8.65, 8.65, 8.93, 8.55, 8.82, 8.43, 8.43, 8.28, 8.4, 8.0, 8.22, 8.22, 8.0, 8.0, 7.74, 7.74, 7.4, 7.51, 7.51, 7.51, 7.13, 7.13, 7.13, 7.13, 6.71, 6.71, 6.71, 6.71, 6.71, 6.71, 6.68, 6.68, 6.23, 6.23, 6.23, 6.23, 6.16, 6.14, 6.14, 6.14, 5.99, 6.04, 6.04, 8.45, 8.45, 8.45, 8.0, 7.37, 6.57, 5.58, 5.58, 6.64, 6.71, 6.71, 7.08, 7.54, 7.37, 7.37, 7.54, 5.73, -1.08, -4.11, -3.48, -2.68, -1.8, -2.0, -2.0, -2.84, -2.53, -1.8, -1.41, -1.3, -1.14, -1.14, -1.14, 6.98, 6.98, 6.98, 6.98, 7.3, 7.3, 7.3, 7.3, 7.3, 7.6, 7.6, 7.6, 7.9, 8.19, 8.19, 8.19, 8.19, 8.19, 8.15, 8.15, 8.15, 8.38, 8.65, 8.65, 8.55, 8.55, 8.82, 8.43, 8.68, 8.68, 8.4, 8.4, 8.0, 8.22, 8.22, 8.0, 8.0, 7.74, 7.74, 7.4, 7.4, 7.51, 7.51, 7.51, 7.13, 7.13, 7.13, 7.13, 7.13, 7.13, 7.13, 6.68, 6.68, 6.68, 6.68, 6.68, 6.16, 6.16, 6.16, 6.16, 6.16, 6.04, 6.04, 6.04, 6.04, 6.04, 8.77, 8.9, 8.9, 8.45, 8.0, 7.1, 6.0, 5.37, 6.0, 6.17, 6.26, 6.71, 7.15, 7.6, 7.54, 7.55, 5.26, -5.95, -4.6, -3.93, -3.58, -2.84, -1.8, -1.8, -1.8, -2.23, -2.48, -2.2, -1.99, -1.14, -1.14, -1.14, 6.98, 6.98, 6.98, 7.3, 7.3, 7.3, 7.3, 7.3, 7.3, 7.3, 7.3, 7.3, 7.9, 7.86, 7.86, 7.86, 7.86, 8.15, 8.15, 8.15, 8.15, 8.65, 8.29, 8.55, 8.55, 8.82, 8.43, 8.43, 8.68, 8.28, 8.51, 8.4, 8.0, 8.22, 8.22, 8.0, 8.0, 7.74, 7.74, 7.84, 7.4, 7.4, 7.51, 7.51, 7.51, 7.07, 7.13, 7.13, 7.13, 7.13, 7.13, 7.13, 6.68, 6.68, 6.61, 6.61, 6.6, 6.16, 6.16, 6.16, 6.04, 6.04, 6.04, 6.04, 6.04, 6.3, 6.04, 6.61, 9.35, 9.39, 8.94, 8.49, 7.6, 6.71, 5.81, 5.51, 6.26, 6.71, 7.15, 7.15, 7.1, 7.37, -3.72, -7.1, -5.59, -4.57, -4.0, -3.6, -2.84, -2.84, -2.84, -1.8, -2.2, -2.2, -2.4, -1.05, -1.05, -1.05, 6.98, 6.98, 6.98, 6.98, 7.3, 7.3, 7.3, 7.3, 7.3, 7.3, 7.59, 7.59, 7.59, 7.59, 7.86, 7.86, 8.15, 8.15, 8.15, 8.15, 8.44, 8.44, 8.29, 8.55, 8.55, 8.43, 8.43, 8.43, 8.68, 8.28, 8.51, 8.51, 8.22, 8.22, 8.22, 8.0, 8.0, 8.17, 7.74, 7.74, 7.84, 7.4, 7.4, 7.51, 7.51, 7.51, 7.07, 7.07, 7.07, 7.07, 7.07, 7.06, 7.06, 6.61, 6.61, 6.61, 6.6, 6.6, 6.04, 6.04, 6.04, 6.04, 6.04, 5.88, 6.3, 6.3, 6.3, 6.94, 9.24, 9.35, 9.35, 9.39, 8.94, 8.49, 7.6, 6.71, 6.26, 6.71, 6.71, 6.64, 6.45, 6.21, -0.0, -6.2, -7.1, -5.4, -4.4, -4.4, -3.6, -3.35, -2.84, -2.84, -2.48, -2.73, -2.2, -0.96, -0.96, -0.96, 6.98, 6.98, 6.98, 6.98, 7.3, 7.3, 7.3, 7.59, 7.59, 7.59, 7.59, 7.59, 7.59, 7.59, 7.59, 8.15, 8.15, 8.15, 8.15, 8.08, 8.08, 8.08, 8.08, 8.37, 8.0, 8.27, 8.27, 8.43, 8.28, 8.28, 8.4, 8.4, 8.22, 8.22, 8.22, 8.42, 8.0, 8.0, 8.17, 7.74, 7.87, 7.87, 7.87, 7.4, 7.4, 7.51, 7.51, 7.07, 7.07, 7.07, 7.07, 7.07, 7.06, 7.06, 7.06, 6.61, 6.61, 6.47, 6.47, 6.04, 6.04, 6.04, 5.88, 6.3, 6.3, 6.3, 6.72, 6.6, 6.84, 9.68, 9.35, 9.35, 8.94, 8.49, 8.05, 7.6, 7.15, 6.71, 6.71, 6.64, 6.0, 5.84, 4.89, -2.48, -6.88, -6.36, -4.57, -4.15, -4.0, -3.6, -3.6, -3.6, -2.84, -2.73, -2.2, -1.05, -1.05, -1.05, 6.63, 6.63, 6.98, 6.98, 6.98, 7.3, 7.59, 7.59, 7.59, 7.59, 7.59, 7.59, 7.59, 7.59, 7.55, 7.55, 7.81, 7.81, 8.08, 8.08, 8.08, 8.08, 8.37, 8.37, 8.27, 8.27, 8.27, 8.27, 8.15, 8.15, 8.4, 8.4, 8.0, 8.22, 8.22, 8.22, 8.0, 8.0, 8.17, 7.74, 7.74, 7.87, 7.87, 7.84, 7.4, 7.4, 7.4, 7.4, 7.51, 7.51, 7.51, 7.06, 7.06, 7.06, 7.06, 6.94, 6.51, 6.51, 6.47, 6.47, 6.47, 6.3, 6.3, 6.3, 6.3, 6.3, 6.51, 6.51, 6.6, 8.99, 9.24, 9.24, 8.77, 8.44, 8.0, 7.54, 7.08, 7.15, 6.71, 6.64, 5.95, 5.84, 6.18, 1.05, -5.37, -6.45, -5.09, -4.57, -4.15, -4.0, -3.6, -4.0, -3.58, -3.48, -2.4, -1.05, -1.05, -1.05, 6.35, 6.35, 6.98, 6.98, 6.98, 7.28, 7.59, 7.59, 7.59, 7.59, 7.59, 7.59, 7.27, 7.55, 7.55, 7.55, 7.55, 7.81, 8.08, 8.08, 8.08, 8.37, 8.37, 8.18, 8.27, 8.27, 8.27, 8.27, 8.15, 8.15, 8.15, 8.4, 8.0, 8.0, 8.22, 8.22, 8.42, 8.0, 8.0, 7.74, 7.74, 7.74, 7.74, 7.74, 7.84, 7.4, 7.4, 7.4, 7.4, 7.4, 7.4, 6.97, 6.94, 6.94, 6.94, 6.94, 6.94, 6.94, 6.47, 6.47, 6.3, 6.3, 6.3, 6.3, 6.3, 6.1, 6.51, 6.51, 6.28, 8.72, 9.06, 8.99, 8.77, 8.0, 8.05, 7.6, 7.15, 7.15, 6.71, 6.45, 6.57, 6.99, 6.6, 2.99, -4.65, -6.64, -5.73, -4.82, -4.38, -4.38, -4.0, -3.93, -3.48, -3.22, -2.2, -2.2, -2.2, -2.2, 6.35, 6.35, 6.35, 6.69, 6.69, 6.97, 6.97, 7.59, 7.59, 7.59, 7.59, 7.55, 7.55, 7.55, 7.55, 7.55, 7.55, 7.55, 8.08, 8.08, 8.08, 8.37, 8.37, 8.0, 8.43, 8.43, 8.43, 8.68, 8.28, 8.15, 8.15, 8.4, 8.4, 8.0, 8.22, 8.22, 8.22, 8.0, 8.0, 8.0, 7.74, 7.74, 7.74, 7.74, 7.69, 7.26, 7.4, 7.4, 7.4, 7.4, 7.4, 7.4, 6.94, 6.94, 6.94, 6.94, 6.94, 6.94, 6.79, 6.3, 6.3, 6.3, 6.3, 6.3, 6.1, 6.51, 6.51, 6.51, 6.28, 7.2, 8.17, 10.14, 9.35, 8.49, 8.49, 8.44, 8.0, 8.05, 7.15, 6.64, 6.88, 6.94, 7.12, 3.63, -4.29, -6.71, -6.26, -4.92, -4.92, -4.82, -4.57, -4.57, -3.93, -3.48, -2.48, -2.48, -2.48, -2.48, 6.35, 6.35, 6.35, 6.35, 6.97, 6.97, 6.97, 7.27, 7.27, 7.27, 7.55, 7.55, 7.55, 7.55, 7.55, 7.55, 7.55, 7.55, 7.85, 8.08, 7.73, 8.0, 8.0, 8.0, 8.27, 8.43, 8.43, 8.68, 8.68, 8.28, 8.28, 8.51, 8.4, 8.0, 8.22, 8.22, 8.22, 7.81, 8.0, 8.0, 8.0, 8.0, 7.74, 7.74, 7.69, 7.69, 7.26, 7.4, 7.4, 7.4, 7.4, 7.4, 7.4, 6.94, 6.94, 6.94, 6.79, 6.79, 6.79, 6.79, 6.3, 6.3, 6.3, 6.1, 6.51, 6.51, 6.51, 6.51, 6.28, 6.8, 7.31, 9.97, 9.35, 9.83, 8.44, 8.45, 8.45, 8.05, 7.15, 7.15, 7.08, 7.08, 6.57, 5.24, -1.08, -6.71, -6.64, -6.17, -5.36, -5.36, -5.36, -4.85, -4.82, -4.0, -3.35, -2.84, -2.84, -2.84, 5.72, 5.72, 6.35, 6.35, 6.64, 6.97, 6.97, 6.97, 7.27, 7.27, 7.55, 7.55, 7.55, 7.55, 7.55, 7.55, 7.55, 7.85, 7.51, 7.51, 7.73, 8.0, 8.0, 8.0, 8.27, 8.27, 8.43, 8.43, 8.68, 8.28, 8.28, 8.51, 8.51, 8.0, 8.22, 8.22, 8.22, 7.81, 8.0, 8.0, 8.0, 8.0, 7.58, 7.74, 7.74, 7.69, 7.69, 7.84, 7.84, 7.84, 7.4, 7.4, 7.4, 7.4, 7.37, 6.79, 6.79, 6.79, 6.79, 6.79, 6.79, 6.72, 6.51, 6.51, 6.51, 6.51, 6.51, 6.6, 6.8, 6.8, 7.2, 7.51, 7.52, 10.28, 8.49, 8.49, 8.49, 7.6, 7.15, 6.71, 6.71, 6.64, 6.45, 5.95, 2.76, -4.24, -7.08, -6.64, -6.64, -6.26, -5.81, -5.81, -4.92, -4.38, -4.0, -3.93, -3.93, -3.93, 5.72, 5.72, 6.35, 6.35, 6.64, 6.97, 6.97, 6.97, 7.27, 7.27, 7.55, 7.55, 7.55, 7.55, 7.55, 7.55, 7.55, 7.85, 7.51, 7.51, 7.73, 8.0, 8.0, 8.0, 8.27, 8.27, 8.43, 8.43, 8.68, 8.28, 8.28, 8.51, 8.51, 8.0, 8.22, 8.22, 8.22, 7.81, 8.0, 8.0, 8.0, 8.0, 7.58, 7.74, 7.74, 7.69, 7.69, 7.84, 7.84, 7.84, 7.4, 7.4, 7.4, 7.4, 7.37, 6.79, 6.79, 6.79, 6.79, 6.79, 6.79, 6.72, 6.51, 6.51, 6.51, 6.51, 6.51, 6.6, 6.8, 6.8, 7.2, 7.51, 7.52, 10.28, 8.49, 8.49, 8.05, 7.6, 7.15, 6.71, 6.71, 6.71, 6.36, 5.58, 5.06, 3.22, -2.84, -6.26, -6.71, -6.71, -6.26, -5.81, -5.81, -5.26, -5.4, -4.89, -4.89, -4.89]}, {"header": {"dx": 0.06612293990616946, "dy": 0.0552356325346848, "nx": 98, "ny": 59, "la1": 35.046912555036876, "la2": 31.78801023549047, "lo1": -121.43107172385933, "lo2": -114.95102361305473, "refTime": "2026041520", "parameterCategory": 1, "parameterNumber": 3}, "data": [-11.62, -11.62, -10.51, -9.94, -9.37, -8.22, -7.3, -6.69, -6.35, -5.46, -4.66, -4.0, -3.25, -2.47, -1.75, -1.75, -1.84, -1.96, -5.58, -6.26, -6.26, -6.26, -5.36, -5.36, -4.92, -4.82, -5.26, -4.98, -5.4, -5.51, -5.73, -5.81, -5.81, -5.73, -5.94, -6.0, -5.58, -5.58, -5.58, -4.74, -4.29, -4.22, -4.0, -5.46, -5.0, -4.13, -4.01, -3.39, -2.49, -1.76, -1.76, -0.89, 0.0, 0.85, 1.84, 3.32, 4.56, 4.34, 4.34, 4.5, 3.8, 3.8, 3.6, 3.77, 3.77, 3.6, 3.6, 3.6, 3.6, 3.6, 2.99, 2.82, 1.98, 2.16, 1.99, 2.2, 1.05, 0.0, 0.0, 0.0, 0.0, 0.0, 0.0, 0.0, 0.0, 0.0, 0.0, 2.99, 7.31, 8.94, 8.9, 8.77, 8.17, 8.17, 7.58, 7.15, 6.79, 8.06, -12.16, -11.62, -11.07, -10.51, -9.59, -8.78, -7.9, -6.98, -6.35, -5.72, -5.08, -4.92, -4.4, -3.21, -3.45, -2.58, -2.69, -2.83, -4.74, -5.26, -6.71, -6.71, -6.71, -6.71, -5.26, -4.82, -4.82, -5.26, -5.73, -6.17, -6.17, -6.26, -6.26, -6.2, -6.45, -6.57, -6.6, -6.6, -6.21, -5.95, -5.84, -5.59, -5.46, -6.04, -5.14, -4.44, -3.51, -2.47, -1.84, -0.89, -0.85, 0.0, 0.0, 1.52, 2.23, 3.63, 4.34, 3.63, 3.63, 3.45, 3.45, 3.6, 3.4, 3.77, 3.77, 3.4, 3.6, 3.6, 2.83, 2.83, 2.67, 1.73, 0.89, 0.0, 1.08, 1.19, 1.05, 0.0, 0.0, 0.0, 0.0, 0.0, 0.0, 0.0, 0.0, 0.0, 0.0, 2.99, 7.31, 8.94, 8.9, 8.77, 8.17, 8.17, 7.58, 7.15, 6.79, 8.06, -12.16, -11.62, -11.07, -10.51, -9.94, -9.37, -8.22, -7.3, -6.69, -6.08, -5.34, -4.71, -4.4, -3.49, -3.32, -3.32, -2.57, -2.57, -3.77, -6.4, -5.73, -6.71, -6.71, -6.51, -6.51, -5.26, -5.26, -5.26, -5.81, -6.26, -6.71, -6.71, -6.71, -7.45, -6.45, -7.89, -7.12, -7.53, -7.53, -7.6, -7.07, -7.02, -6.83, -5.9, -5.29, -3.65, -2.57, -0.89, 0.0, 0.0, 0.0, 0.81, 1.75, 2.57, 3.15, 3.32, 3.32, 3.32, 2.83, 2.69, 2.69, 2.83, 3.4, 3.4, 3.4, 3.6, 3.6, 2.83, 2.83, 1.95, 0.84, 0.0, 0.0, 0.0, 0.0, 0.0, 0.0, 0.0, 0.0, 2.24, 2.68, 0.0, 0.0, 0.0, 0.0, -1.13, 0.0, 4.65, 8.0, 8.94, 8.9, 8.77, 8.17, 7.76, 7.15, 6.32, 6.91, 8.29, -12.16, -11.62, -11.62, -11.07, -10.15, -9.37, -8.78, -7.9, -6.98, -6.35, -5.72, -5.36, -5.06, -4.0, -3.49, -4.2, -4.2, -3.81, -3.63, -4.87, -6.0, -6.94, -6.71, -5.26, -5.73, -6.94, -5.73, -5.81, -5.81, -6.26, -6.71, -7.15, -7.15, -7.89, -7.89, -7.89, -8.48, -9.46, -8.72, -8.8, -8.42, -8.38, -6.83, -5.21, -4.34, -2.83, -1.67, -0.89, 0.0, 0.0, 0.74, 1.76, 2.47, 2.7, 3.49, 2.7, 2.57, 2.57, 2.57, 2.69, 2.69, 3.6, 3.6, 3.6, 3.6, 3.6, 2.83, 3.09, 2.4, 1.65, 0.89, 0.0, -2.48, -2.97, -2.4, -1.6, 0.0, 3.13, 2.68, 2.21, 2.24, 2.21, 0.0, 0.0, 0.0, 0.0, 3.48, 6.64, 8.49, 8.94, 8.45, 8.29, 7.76, 7.58, 6.32, 6.01, 6.99, 8.0, -12.42, -11.62, -11.62, -11.07, -10.51, -9.94, -9.02, -8.19, -7.3, -6.97, -5.72, -5.72, -5.06, -3.81, -3.32, -3.49, -4.0, -4.56, -4.2, -5.36, -7.28, -7.45, -6.94, -7.15, -5.73, -7.15, -7.6, -7.6, -7.6, -6.64, -7.1, -6.94, -7.37, -6.88, -7.89, -7.89, -8.33, -8.48, -9.49, -9.75, -8.82, -7.06, -6.18, -4.34, -3.63, -1.84, -0.85, 0.0, 0.0, 0.0, 0.85, 1.68, 1.68, 2.47, 2.47, 1.68, 1.84, 1.75, 1.75, 1.84, 2.83, 3.6, 3.99, 3.6, 3.6, 3.6, 2.67, 2.67, 2.83, 2.67, 1.96, 1.19, -2.24, -3.72, -3.82, -2.24, 0.0, 2.68, -0.0, -0.0, 0.0, 0.0, 2.21, 2.53, 2.84, 4.98, 6.64, 7.6, 8.49, 8.49, 8.44, 8.06, 7.76, 7.15, 6.32, 6.01, 7.12, 8.05, -12.42, -12.16, -11.62, -11.07, -10.51, -9.94, -9.37, -8.78, -7.59, -6.97, -6.34, -5.44, -5.46, -3.81, -2.7, -3.49, -4.2, -4.56, -5.21, -5.06, -5.82, -5.58, -5.94, -5.81, -6.71, -7.15, -7.6, -7.6, -8.05, -8.49, -6.94, -7.12, -6.55, -6.11, -5.58, -4.82, -3.58, -3.82, -7.15, -8.9, -7.63, -6.01, -3.97, -2.67, -1.84, 0.0, 0.0, 0.89, 0.85, 0.89, 0.89, 1.68, 1.68, 1.84, 1.68, 1.68, 1.75, 1.67, 1.67, 1.75, 2.67, 3.77, 3.77, 3.77, 3.4, 3.4, 2.99, 2.82, 2.99, 2.82, 4.19, 3.79, 3.13, -0.0, -0.0, 2.68, 3.13, 3.13, 1.4, -0.0, 0.0, 3.13, 4.24, 4.77, 5.73, 7.08, 7.15, 7.6, 8.05, 8.05, 8.44, 8.06, 7.2, 6.32, 6.32, 6.55, 7.37, 8.05, -12.42, -12.42, -11.62, -11.07, -10.51, -10.15, -9.37, -8.78, -8.19, -7.27, -6.34, -5.71, -5.46, -4.2, -3.61, -3.49, -3.36, -3.99, -4.56, -4.5, -3.88, -2.54, -0.96, 0.0, 0.0, -3.47, -4.11, -4.8, -6.26, -6.71, -8.49, -7.12, -6.79, -6.18, -5.1, -1.8, 3.2, 1.98, -3.72, -4.98, -5.36, 0.0, 0.0, 1.63, 3.4, 3.55, 3.6, 3.45, 3.45, 2.58, 2.58, 1.67, 1.75, 0.89, 0.89, 0.89, 0.85, 0.94, 0.89, 1.84, 2.82, 2.82, 3.55, 3.55, 3.77, 3.77, 3.77, 2.82, 2.82, 3.72, 3.91, 4.11, 4.6, 5.26, 5.7, 5.7, 4.4, 3.2, 3.2, 2.73, 2.84, 4.47, 5.36, 6.26, 6.71, 6.26, 6.64, 7.08, 7.15, 7.6, 7.11, 6.94, 7.58, 6.79, 6.45, 7.53, 8.0, 8.0, -12.42, -12.42, -11.88, -11.07, -10.7, -10.15, -9.59, -9.02, -8.19, -7.27, -6.64, -6.01, -5.63, -4.78, -4.8, -3.88, -4.07, -4.07, -3.88, -4.2, -3.36, -1.6, 0.0, 2.67, 3.4, 3.15, 3.2, 3.72, 0.0, -5.58, -7.89, -8.38, -6.44, -4.6, -1.73, 1.7, 4.82, 4.4, 2.4, 3.48, 5.36, 6.51, 6.8, 6.44, 7.28, 7.33, 5.89, 5.21, 4.34, 3.87, 2.69, 2.83, 1.75, 0.89, 0.0, 0.0, 0.0, 0.0, 0.0, 1.01, 1.98, 1.98, 3.0, 4.29, 4.87, 4.68, 2.83, 1.96, 3.0, 2.8, 2.99, 4.11, 4.98, 5.94, 5.94, 5.2, 4.65, 4.09, 4.02, 3.48, 2.0, 3.6, 4.47, 4.92, 5.36, 5.29, 5.09, 6.17, 6.64, 6.64, 6.51, 6.4, 7.2, 7.2, 7.2, 7.81, 8.0, 8.0, -12.42, -12.03, -11.88, -11.24, -10.7, -10.51, -9.94, -9.37, -8.45, -8.15, -7.51, -6.87, -7.9, -6.48, -6.48, -6.48, -5.9, -5.46, -5.21, -4.98, -2.97, 0.0, 1.96, 4.87, 5.37, 5.31, 5.69, 5.69, 2.99, 0.0, -4.11, 0.0, 3.48, 3.72, 3.72, 4.58, 5.95, 7.15, 7.15, 7.45, 7.89, 7.47, 7.47, 7.28, 6.63, 5.69, 6.95, 5.46, 5.21, 4.56, 3.87, 1.67, 0.89, 0.0, 0.0, -0.89, -0.89, -0.89, 0.0, 0.0, 1.05, 3.22, 4.43, 5.49, 5.24, 4.12, 2.69, 0.94, 1.03, 0.96, 1.05, 2.0, 3.72, 3.6, 2.98, 3.16, 3.48, 4.4, 4.77, 4.47, 3.72, 1.98, 2.8, 3.13, 3.58, 3.9, 4.0, 5.26, 4.85, 5.09, 5.2, 6.28, 6.94, 7.76, 8.06, 7.85, 7.85, 7.85, -12.42, -12.03, -11.88, -11.5, -11.07, -10.51, -9.94, -9.37, -8.78, -8.15, -7.81, -8.08, -6.64, -5.72, -6.77, -6.64, -7.13, -6.79, -6.01, -1.98, 0.0, 3.47, 5.72, 7.06, 7.06, 6.4, 6.4, 6.4, 4.56, 1.73, 4.43, 7.6, 7.89, 7.47, 6.79, 4.83, 6.08, 6.57, 8.48, 8.0, 6.55, 6.18, 5.49, 5.06, 4.58, 5.37, 4.68, 4.5, 4.56, 3.49, 2.47, 0.85, 0.0, -0.85, -2.47, -2.57, -2.83, -1.84, -1.84, 0.0, 3.16, 5.6, 7.6, 7.2, 5.89, 4.4, 1.68, 0.0, -0.82, -1.05, 0.0, 0.0, 1.4, 1.2, 0.0, 0.0, 3.2, 3.82, 4.34, 4.85, 4.47, 2.68, -0.0, -0.0, 0.0, 2.24, 2.4, 2.97, 3.39, 3.6, 4.98, 6.02, 7.37, 8.06, 8.29, 8.29, 8.29, 7.63, -12.03, -11.88, -11.88, -11.5, -11.07, -10.51, -10.15, -9.59, -9.02, -8.45, -8.15, -8.15, -7.9, -6.35, -6.24, -5.46, -5.82, -2.58, -0.43, 1.2, 4.82, 5.26, 5.4, 5.81, 6.51, 6.26, 6.26, 6.26, 6.0, 5.95, 6.8, 6.57, 6.4, 5.95, 5.06, 5.1, 6.32, 8.18, 7.15, 6.32, 5.53, 4.42, 4.58, 4.56, 6.08, 5.49, 4.58, 3.77, 2.69, 1.84, 1.75, 1.75, 0.89, 0.0, -1.84, -4.5, -5.69, -4.74, -3.16, 2.8, 6.64, 8.29, 8.3, 7.81, 6.04, 4.44, 0.85, -2.67, -4.11, -3.22, -2.48, -0.99, 0.0, -1.2, -1.58, -1.79, 0.0, 3.13, 4.47, 4.82, 4.57, 3.35, 0.0, -2.21, -1.9, -1.79, 0.0, 0.0, 1.58, 2.97, 3.9, 5.7, 6.36, 7.37, 7.81, 7.85, 7.81, 7.53, -12.03, -11.88, -11.88, -11.5, -11.07, -10.51, -10.15, -9.94, -9.37, -8.78, -8.45, -8.45, -8.22, -7.33, -5.67, -3.91, -2.17, -1.09, 0.0, 1.13, 1.88, 1.9, 1.9, 5.6, 6.26, 6.26, 5.09, 2.17, 4.92, 5.94, 5.72, 6.32, 5.84, 4.58, 4.42, 4.68, 5.59, 6.18, 5.36, 4.34, 3.8, 3.77, 3.72, 4.74, 6.0, 5.37, 6.08, 4.83, 4.83, 4.14, 3.55, 3.77, 4.58, 4.43, 2.2, -1.19, -5.37, -6.17, -3.2, 5.94, 9.39, 10.14, 9.24, 8.43, 7.68, 6.98, 2.83, -4.98, -6.26, -5.26, -4.0, -3.35, -3.35, -4.24, -3.58, -2.21, -0.0, 1.6, 2.21, 2.68, 3.72, 4.09, 4.47, -0.0, -1.4, -2.21, -1.4, -0.0, 1.79, 2.24, 2.68, 3.58, 4.38, 5.94, 6.88, 7.37, 6.99, 6.57, -11.88, -11.88, -11.88, -11.5, -11.07, -10.7, -10.51, -9.94, -9.59, -9.02, -8.78, -8.78, -8.5, -7.93, -6.96, -5.36, -3.47, -1.66, 0.0, 0.0, 0.57, 0.55, 0.59, 1.58, 2.24, 2.0, 0.99, 1.26, 1.2, 1.34, 3.93, 5.49, 5.49, 4.87, 4.42, 5.24, 5.1, 4.34, 3.45, 2.69, 2.83, 2.82, 3.63, 4.98, 6.07, 6.51, 6.4, 6.08, 6.08, 6.44, 5.15, 5.21, 6.02, 6.71, 7.6, 6.51, 0.0, -6.71, -1.08, 7.76, 10.7, 10.14, 9.13, 8.8, 9.03, 9.42, 6.4, -4.02, -6.45, -6.26, -5.36, -5.36, -5.36, -4.24, -0.0, 2.84, 2.23, 1.27, -0.0, -0.0, 2.24, 4.02, 4.47, 5.36, 3.13, -0.0, -0.0, -0.0, 1.9, 1.58, -0.0, 1.79, 3.13, 4.82, 5.51, 5.6, 6.0, 6.36, -11.88, -11.5, -11.5, -11.5, -11.07, -11.07, -10.51, -9.94, -9.59, -9.37, -9.37, -8.5, -8.5, -7.93, -7.61, -6.27, -5.32, -3.44, -2.19, -1.15, -0.54, 0.0, 0.0, 0.61, 1.2, 1.2, 0.95, 0.63, 0.63, 0.45, 1.7, 4.6, 5.37, 4.58, 5.37, 5.24, 4.03, 3.45, 1.75, 0.89, 0.89, 2.16, 5.21, 6.07, 6.26, 6.26, 5.4, 6.4, 6.8, 7.2, 7.47, 7.45, 7.6, 8.05, 7.45, 6.16, 5.37, 0.0, 4.47, 8.06, 10.25, 10.2, 9.89, 10.41, 9.49, 9.49, 7.89, 2.68, -5.51, -5.73, -5.73, -5.51, -3.48, 1.27, 5.4, 6.17, 5.81, 3.82, -0.0, -0.0, -0.0, 2.8, 2.8, 3.13, 4.82, 4.34, 3.58, 3.2, 2.97, 2.4, -0.0, -0.0, 2.4, 3.58, 3.35, 3.93, 4.29, 5.4, -11.5, -11.5, -11.5, -11.5, -11.07, -11.07, -10.51, -10.51, -9.94, -9.59, -9.08, -8.82, -8.82, -7.93, -7.95, -6.96, -5.83, -5.17, -3.5, -2.23, -1.73, -1.14, -0.56, 0.0, 0.0, 0.63, 0.89, 0.45, 0.0, 0.45, 1.2, 2.15, 5.72, 5.37, 6.28, 6.98, 5.21, 3.6, 1.26, 0.95, 1.84, 5.21, 5.94, 6.26, 6.26, 6.71, 6.51, 6.51, 6.51, 6.4, 6.8, 6.4, 6.94, 6.94, 6.4, 5.72, 4.56, 3.22, 5.06, 9.74, 8.49, 8.38, 8.38, 8.48, 9.03, 9.03, 8.48, 6.08, 2.4, -6.26, -5.94, -3.22, 2.95, 6.88, 8.05, 8.0, 7.37, 6.17, 3.2, -0.0, -0.0, -0.0, -0.0, -0.0, 2.24, 4.98, 4.98, 4.92, 4.02, 4.47, 2.53, -0.0, -0.0, 1.79, 1.4, 3.35, 4.77, 4.77, -11.5, -11.5, -11.5, -11.5, -11.07, -11.07, -10.51, -10.51, -9.94, -9.66, -9.42, -9.08, -8.53, -8.24, -8.24, -7.61, -6.56, -5.64, -4.54, -3.42, -2.8, -2.19, -1.71, -1.14, 0.0, 0.51, 0.65, 0.0, 0.0, 0.0, 1.26, 2.5, 3.14, 5.72, 6.9, 6.82, 6.01, 3.77, 2.82, 3.47, 4.98, 6.17, 7.01, 7.01, 6.58, 6.51, 6.51, 6.51, 6.51, 6.0, 6.0, 6.4, 6.4, 6.4, 5.58, 3.72, 4.29, 4.56, 6.01, 8.0, 6.94, 6.4, 6.0, 6.4, 6.8, 7.2, 5.58, 6.01, 3.15, -1.98, -4.34, 2.0, 6.57, 8.0, 8.49, 8.29, 7.76, 6.6, 4.77, -0.0, -2.2, -2.2, -2.2, -1.27, -0.0, 0.0, 3.72, 4.77, 4.82, 5.26, 4.92, -0.0, 0.0, 1.58, 1.58, 2.68, 3.58, 3.58, -11.5, -11.5, -11.5, -11.34, -11.34, -11.07, -10.7, -10.51, -10.51, -9.66, -9.66, -9.42, -8.53, -8.53, -8.24, -7.33, -6.97, -5.67, -5.23, -3.91, -3.45, -2.86, -2.23, -1.12, -0.53, 0.0, 0.0, -0.57, -0.99, 0.0, 1.86, 2.91, 3.2, 6.4, 6.94, 7.21, 7.12, 6.8, 6.4, 7.01, 7.6, 6.71, 7.45, 6.2, 7.45, 7.06, 7.06, 6.4, 6.0, 5.21, 5.21, 5.21, 4.74, 4.74, 4.74, 4.29, 4.29, 4.29, 5.37, 5.37, 5.72, 4.43, 4.11, 3.22, 3.47, 3.22, 4.29, 3.4, 3.4, 0.0, 0.0, 5.75, 7.54, 8.05, 8.44, 7.76, 7.2, 7.2, 6.0, 3.82, -0.0, -1.41, -1.19, -0.0, -0.0, -0.0, 2.68, 4.92, 5.36, 5.26, 2.97, -0.0, 1.9, 3.58, 4.02, 3.13, 3.58, 3.58, -11.75, -11.5, -11.5, -11.34, -11.34, -11.07, -11.07, -10.51, -10.23, -10.01, -9.66, -9.42, -9.13, -8.53, -7.93, -7.61, -6.97, -6.31, -5.67, -4.6, -3.45, -2.83, -2.23, -1.1, -1.12, -1.14, -1.7, -2.2, -1.84, 0.0, 2.4, 2.91, 3.32, 3.82, 4.88, 7.15, 7.15, 7.6, 7.15, 7.15, 7.6, 7.6, 7.15, 7.45, 7.06, 6.9, 5.69, 5.37, 4.74, 5.21, 5.21, 5.21, 4.43, 4.74, 4.74, 4.29, 4.29, 4.29, 4.29, 4.29, 3.2, 3.0, 1.84, 1.84, 0.0, 0.96, 1.05, 1.73, 1.84, 1.84, 5.37, 7.53, 7.85, 7.63, 7.53, 7.2, 7.2, 7.6, 7.53, 6.57, 5.4, 4.34, 4.34, 2.84, 2.84, 2.84, 3.72, 4.34, 4.92, 4.77, 4.24, 3.2, 4.0, 5.36, 5.81, 4.92, 3.58, 3.58, -11.75, -11.5, -11.34, -11.34, -11.34, -11.07, -11.07, -10.51, -10.23, -10.23, -10.01, -9.72, -9.13, -8.85, -8.22, -9.06, -7.32, -6.98, -5.7, -4.4, -4.12, -3.94, -3.56, -3.45, -2.82, -3.2, -2.15, -2.23, 0.0, 1.7, 2.63, 2.91, 2.91, 2.91, 3.58, 3.98, 4.43, 3.98, 5.81, 6.71, 5.81, 6.17, 6.94, 7.06, 7.28, 6.01, 5.31, 4.56, 5.06, 6.0, 6.0, 6.0, 4.74, 4.74, 5.06, 4.29, 4.29, 4.29, 4.29, 2.66, 1.63, 1.63, 1.52, 0.0, 0.0, 0.0, 0.0, 0.89, 1.73, 2.97, 5.32, 6.7, 6.15, 5.63, 4.68, 5.84, 6.6, 7.53, 8.06, 7.53, 6.99, 6.88, 7.15, 5.81, 5.81, 4.8, 3.48, 2.23, 3.82, 3.39, 4.4, 5.36, 6.17, 6.26, 6.71, 5.73, 4.92, 4.92, -11.75, -11.5, -11.34, -11.34, -11.34, -11.07, -11.07, -11.07, -10.59, -10.23, -10.01, -9.72, -9.46, -9.13, -8.53, -7.9, -7.3, -6.97, -7.78, -6.7, -6.57, -5.34, -5.72, -6.18, -3.77, -3.22, -2.8, 0.45, 2.24, 2.63, 2.49, 2.4, 2.15, 2.91, 3.13, 3.13, 3.09, 3.53, 3.53, 3.58, 3.58, 3.87, 4.11, 4.8, 4.84, 5.31, 4.14, 4.56, 6.0, 6.51, 6.0, 6.4, 5.72, 5.72, 4.89, 4.74, 4.56, 3.47, 2.64, 1.49, 0.0, 0.0, 0.0, 0.0, 0.0, 0.0, 0.0, 1.03, 1.84, 2.69, 3.36, 3.42, 2.44, 1.69, 0.89, 1.98, 4.98, 6.45, 7.53, 7.53, 6.8, 7.12, 7.12, 6.94, 6.64, 4.92, 3.9, 2.53, 0.99, 2.4, 4.47, 5.81, 6.26, 6.71, 6.2, 5.94, 5.4, 5.4, -11.36, -11.34, -11.34, -11.34, -11.34, -11.07, -11.07, -11.07, -10.59, -10.59, -9.72, -9.72, -9.46, -9.13, -9.13, -8.24, -7.6, -7.27, -6.95, -8.31, -7.27, -5.59, -6.79, -5.69, -3.45, -1.08, 0.0, 1.49, 2.6, 2.4, 2.4, 1.9, 1.9, 2.4, 2.63, 2.68, 3.13, 3.13, 3.13, 3.58, 3.53, 3.87, 4.19, 4.9, 5.08, 6.98, 5.69, 5.72, 6.94, 7.01, 7.01, 7.06, 7.06, 6.08, 6.08, 4.74, 4.58, 3.33, 1.32, 0.0, 0.0, 0.0, 0.0, 0.0, 0.0, 0.0, 0.96, 0.96, 1.96, 2.54, 2.59, 0.82, -1.7, -2.47, -1.84, 0.0, 4.02, 6.17, 6.88, 7.12, 7.12, 6.8, 6.99, 6.28, 6.88, 6.45, 5.94, 4.92, 4.82, 2.23, 4.0, 5.36, 5.81, 5.36, 5.29, 4.8, 4.6, 4.6, -11.36, -10.96, -10.96, -10.96, -10.96, -10.7, -11.07, -11.07, -10.59, -10.59, -10.3, -10.06, -9.72, -9.13, -9.13, -8.53, -7.9, -7.59, -7.59, -6.67, -5.08, -4.29, -5.6, -6.15, -4.81, -2.77, -0.53, 0.0, 0.65, 1.24, 1.58, 1.58, 1.58, 1.86, 2.17, 2.63, 3.13, 3.13, 3.13, 3.58, 4.02, 4.43, 4.34, 4.6, 5.4, 5.21, 5.69, 6.0, 7.01, 7.45, 7.45, 7.47, 6.52, 6.52, 6.08, 5.37, 4.87, 4.68, 1.32, 0.0, -1.84, -2.16, -1.99, -1.19, 0.0, 0.0, 1.19, 1.05, 1.98, 2.99, 2.7, 1.54, -2.2, -4.92, -2.68, -0.0, 2.97, 4.47, 5.36, 6.65, 7.37, 7.12, 7.12, 7.81, 7.53, 7.53, 7.53, 7.81, 7.11, 3.79, 3.48, 4.0, 4.38, 4.47, 4.38, 4.22, 4.98, 4.98, -11.22, -11.22, -11.22, -10.96, -10.96, -10.7, -10.7, -11.07, -10.59, -10.59, -10.3, -10.06, -10.06, -9.46, -9.13, -8.82, -8.22, -7.3, -7.3, -6.98, -5.08, -3.45, -3.73, -5.21, -5.59, -4.08, -2.29, -1.16, 0.0, 0.0, 0.71, 1.24, 1.24, 1.26, 2.12, 2.17, 2.68, 3.13, 3.58, 3.58, 3.98, 4.44, 4.34, 4.77, 5.09, 5.31, 7.06, 7.01, 7.6, 7.94, 7.94, 7.47, 6.9, 6.9, 6.9, 6.44, 5.37, 5.24, 4.37, 0.0, -3.49, -3.79, -3.48, -1.27, 0.0, 1.27, 1.08, 1.19, 2.16, 1.98, 3.15, 5.58, -1.84, -3.47, -3.48, -0.0, 1.98, 3.35, 5.09, 6.21, 6.71, 7.54, 8.0, 7.85, 8.06, 8.06, 8.29, 8.29, 8.06, 7.81, 3.48, 2.68, 2.84, 3.58, 3.58, 3.6, 4.57, 4.57, -11.22, -11.22, -11.22, -10.96, -10.96, -10.7, -10.7, -11.07, -10.59, -10.59, -10.3, -10.3, -10.06, -9.72, -9.13, -9.08, -8.5, -7.9, -7.3, -7.3, -6.08, -4.44, -3.22, -3.79, -4.71, -4.75, -3.85, -2.82, -1.76, -0.61, 0.0, 0.54, 0.57, 0.8, 1.26, 2.12, 2.17, 2.63, 3.13, 3.53, 3.98, 4.43, 4.34, 4.3, 4.3, 4.44, 6.71, 7.15, 7.6, 7.94, 8.38, 7.6, 6.9, 6.9, 6.9, 6.9, 5.49, 5.37, 6.01, 2.12, -2.84, -3.72, -3.2, 0.0, 3.2, 3.72, 3.48, 3.47, 1.99, 1.03, 0.95, 4.4, -0.0, -2.16, -1.7, -0.0, 3.22, 5.21, 5.72, 6.28, 6.65, 6.71, 7.15, 7.42, 7.63, 8.06, 8.06, 8.06, 7.76, 7.6, 5.36, 2.0, 0.98, 2.21, 3.13, 3.58, 4.38, 4.38, -11.22, -11.22, -11.22, -10.96, -10.96, -10.96, -10.51, -10.87, -10.59, -10.59, -10.3, -10.3, -10.06, -9.72, -9.42, -9.08, -8.5, -8.22, -7.9, -7.3, -6.98, -5.7, -4.69, -3.45, -4.12, -4.12, -3.84, -3.47, -2.86, -1.13, -0.53, 0.0, 0.0, 0.57, 0.8, 1.26, 2.12, 2.6, 3.07, 3.53, 3.98, 4.3, 4.11, 4.11, 3.39, 3.13, 3.13, 3.58, 4.47, 4.89, 5.24, 8.06, 7.47, 8.06, 7.6, 6.28, 5.69, 4.74, 6.44, 5.37, 2.4, 0.0, 0.0, 3.58, 4.77, 4.98, 4.11, 2.99, 2.16, 0.0, 0.0, 0.96, -0.0, -3.0, -1.98, -0.0, 1.84, 3.91, 5.69, 6.6, 6.7, 6.51, 6.71, 7.11, 7.81, 7.81, 7.63, 7.76, 7.6, 7.03, 6.55, 3.58, 1.98, 2.48, 3.6, 4.02, 4.02, 4.02, -10.83, -10.83, -10.83, -10.96, -10.96, -10.79, -10.51, -10.87, -10.59, -10.59, -10.3, -10.3, -10.06, -9.72, -9.42, -9.08, -8.78, -8.78, -7.9, -7.6, -7.3, -6.98, -5.72, -4.45, -3.84, -3.84, -3.83, -3.49, -3.12, -2.23, -1.16, -0.65, 0.0, 0.0, 0.57, 1.26, 1.49, 2.17, 2.63, 3.53, 3.98, 4.3, 4.11, 3.88, 2.68, 1.79, 2.24, 3.13, 4.02, 4.92, 5.33, 5.24, 7.63, 8.06, 8.0, 6.98, 5.69, 6.08, 6.08, 5.69, 4.83, 3.72, 3.16, 5.26, 5.73, 5.94, 4.89, 3.91, 1.03, 0.0, 0.0, 0.0, 0.0, -2.53, -3.0, -1.73, 0.79, 3.2, 4.87, 5.37, 6.6, 6.28, 6.21, 6.71, 7.11, 7.37, 7.53, 7.6, 6.82, 6.8, 7.2, 5.2, 4.47, 4.82, 4.85, 4.92, 4.02, 4.02, -10.83, -10.83, -10.83, -10.58, -10.79, -10.51, -10.51, -10.51, -10.59, -10.59, -10.3, -10.3, -10.06, -9.72, -9.42, -9.08, -8.78, -8.78, -8.19, -8.19, -7.59, -6.69, -6.35, -5.46, -4.71, -3.84, -3.47, -3.49, -3.49, -2.86, -1.8, -1.6, -1.16, -0.54, 0.0, 0.0, 0.8, 1.86, 2.4, 2.91, 3.39, 4.11, 4.4, 4.0, 2.21, 1.2, 1.34, 3.13, 4.47, 5.36, 5.33, 5.24, 5.09, 5.09, 6.6, 6.55, 6.63, 6.52, 5.95, 5.49, 4.37, 3.55, 4.56, 5.6, 7.06, 6.0, 4.74, 3.0, 1.84, 0.89, 0.0, 0.0, 0.0, 0.0, -2.68, -0.0, -0.0, 1.49, 2.83, 4.42, 5.37, 5.58, 5.59, 6.26, 6.26, 6.65, 7.12, 6.82, 7.2, 7.12, 6.79, 7.21, 6.88, 7.1, 6.26, 5.36, 4.47, 4.47, -10.68, -10.68, -10.68, -10.41, -10.79, -10.51, -10.51, -10.51, -10.51, -10.59, -10.3, -10.06, -9.72, -9.72, -9.42, -9.08, -8.78, -8.78, -8.45, -8.19, -7.59, -6.97, -6.97, -6.08, -5.34, -4.46, -4.1, -4.1, -3.47, -3.49, -2.86, -2.48, -1.84, -1.0, -0.54, 0.0, 0.57, 1.26, 1.86, 2.4, 3.32, 3.7, 4.4, 4.0, 3.14, 0.8, 0.0, 3.13, 5.36, 5.81, 5.7, 5.09, 5.02, 4.4, 4.8, 6.18, 6.28, 6.9, 6.21, 5.84, 3.55, 2.82, 3.72, 5.95, 6.6, 6.9, 3.97, 1.84, 0.95, 0.0, 0.0, 0.0, 0.0, 0.0, 2.8, 4.4, 3.93, 1.96, 1.75, 2.67, 3.77, 2.58, 2.68, 5.29, 5.36, 5.31, 5.75, 6.6, 7.12, 7.37, 7.12, 7.12, 7.53, 7.21, 6.79, 6.07, 4.57, 4.57, -10.68, -10.68, -10.41, -10.41, -10.41, -10.51, -10.51, -10.51, -10.23, -10.23, -10.06, -10.06, -9.72, -9.13, -9.42, -9.08, -8.82, -8.78, -8.45, -7.86, -7.59, -6.97, -6.67, -6.35, -5.72, -5.72, -5.1, -4.47, -3.85, -3.47, -3.49, -2.86, -2.23, -1.84, -0.53, 0.0, 0.0, 0.71, 1.58, 2.15, 2.68, 3.6, 4.11, 6.16, 6.16, 2.23, 0.8, 4.02, 6.68, 6.23, 5.57, 5.09, 4.8, 4.4, 4.0, 4.0, 6.08, 6.9, 6.18, 5.37, 4.42, 3.55, 4.58, 6.18, 6.55, 4.87, 3.77, 1.96, 0.0, -1.73, -0.89, -0.89, -0.89, 0.0, 4.11, 6.64, 6.71, 5.7, 3.0, 1.84, 2.67, 2.23, 2.21, 2.4, 4.92, 4.92, 5.09, 6.0, 6.16, 6.16, 6.16, 6.16, 5.82, 6.4, 6.4, 6.4, 5.75, 5.75, -10.68, -10.68, -10.41, -10.41, -10.41, -10.15, -10.51, -10.51, -10.23, -10.01, -10.01, -9.72, -9.72, -9.13, -9.42, -9.08, -8.82, -8.78, -8.19, -7.86, -7.27, -6.97, -6.67, -6.35, -6.35, -5.72, -5.72, -5.1, -4.47, -3.85, -3.47, -3.49, -2.86, -1.8, -1.33, -0.53, 0.0, 0.54, 1.49, 1.9, 2.5, 3.07, 3.6, 4.11, 4.8, 5.24, 4.98, 5.7, 6.47, 5.81, 4.93, 4.55, 4.55, 4.0, 4.0, 3.78, 3.43, 3.48, 5.06, 5.37, 4.42, 4.42, 5.24, 5.69, 4.42, 4.42, 3.77, 3.15, 0.0, -3.0, -3.97, -1.84, 0.0, 0.0, 4.02, 5.94, 6.71, 7.15, 6.17, 4.19, 1.96, 0.98, 1.16, 1.58, 1.73, 4.02, 4.38, 4.22, 3.48, 3.48, 3.93, 4.98, 5.2, 6.6, 6.4, 6.4, 6.4, 6.4, -10.68, -10.68, -10.41, -10.41, -10.41, -10.15, -10.15, -10.3, -10.01, -10.01, -10.01, -9.72, -9.46, -9.13, -9.08, -8.82, -8.5, -8.45, -7.86, -7.55, -7.55, -6.97, -6.67, -6.35, -6.35, -5.72, -5.72, -5.1, -4.73, -4.47, -4.1, -3.47, -3.08, -2.44, -1.8, -1.13, 0.0, 0.0, 1.2, 1.88, 2.21, 2.79, 3.07, 3.6, 3.6, 4.89, 5.95, 5.47, 5.21, 4.29, 4.07, 3.73, 3.48, 4.0, 3.48, 3.48, 3.48, 2.86, 3.15, 4.29, 4.42, 4.68, 4.5, 4.26, 3.4, 2.82, 2.82, 2.99, 1.73, -1.98, -1.19, 0.0, 1.84, 1.05, 3.2, 3.91, 5.6, 6.26, 7.15, 6.36, 2.6, -0.0, -0.0, 0.53, 0.42, 0.89, 1.2, 1.8, 1.83, 0.88, 1.98, 3.35, 4.22, 5.2, 5.82, 6.4, 6.4, 6.4, -10.68, -10.68, -10.41, -10.41, -10.41, -9.94, -9.94, -9.94, -9.66, -10.01, -10.01, -10.01, -9.46, -9.13, -8.82, -8.82, -8.5, -8.19, -7.86, -7.55, -6.95, -6.67, -6.97, -6.67, -6.35, -6.35, -5.72, -5.36, -6.04, -4.75, -5.08, -4.47, -3.84, -2.84, -2.44, -1.11, -0.59, 0.0, 0.61, 1.16, 1.88, 2.53, 2.79, 3.14, 2.79, 3.14, 2.86, 3.49, 3.49, 3.48, 3.48, 3.48, 3.48, 3.48, 3.48, 3.48, 3.15, 3.15, 2.48, 2.44, 3.55, 3.6, 3.6, 3.09, 2.83, 1.73, 0.95, 1.49, 1.84, 1.73, 2.99, 3.72, 4.37, 1.58, 2.68, 2.16, 2.99, 4.29, 5.51, 5.75, 4.6, 0.81, -0.0, -0.0, -0.57, -0.0, 0.0, 0.0, 0.0, 0.0, 0.0, 2.4, 4.34, 5.09, 5.82, 5.82, 6.4, 6.4, -10.68, -10.68, -10.41, -10.41, -10.41, -9.94, -9.94, -9.94, -9.66, -9.66, -9.66, -9.76, -9.13, -9.13, -8.82, -8.5, -8.19, -7.59, -7.27, -7.55, -6.97, -6.97, -6.97, -6.97, -6.64, -6.35, -5.72, -5.72, -5.1, -5.76, -5.01, -5.01, -4.43, -3.49, -2.61, -1.76, -0.59, 0.0, 0.61, 1.16, 1.84, 2.23, 2.84, 2.84, 2.84, 2.23, 2.23, 2.22, 2.22, 2.86, 2.86, 3.15, 3.15, 3.15, 3.15, 2.86, 2.86, 2.86, 2.44, 2.44, 2.4, 2.67, 2.83, 2.67, 1.84, 1.01, 0.89, 1.03, 1.49, 2.99, 4.42, 4.68, 2.67, 0.89, 0.0, 1.8, 1.98, 1.99, 2.68, 3.58, 4.15, 2.84, -0.0, -0.81, -1.0, -1.7, -1.27, -1.61, -1.03, 0.0, 0.0, 2.24, 3.13, 4.38, 5.09, 6.57, 6.0, 6.0, -10.3, -10.3, -10.41, -10.41, -10.23, -9.94, -9.94, -9.94, -9.66, -9.42, -9.42, -9.42, -9.13, -9.13, -8.82, -8.22, -8.19, -7.59, -7.27, -7.27, -6.97, -6.97, -6.97, -6.97, -6.97, -6.35, -6.35, -6.35, -5.72, -4.45, -4.47, -4.43, -4.71, -4.11, -3.12, -2.22, -1.11, 0.0, 0.0, 0.59, 1.13, 2.07, 2.23, 2.86, 2.48, 2.22, 1.76, 1.76, 2.48, 2.48, 2.86, 2.86, 2.86, 2.86, 2.86, 2.86, 2.44, 2.44, 2.44, 2.2, 2.99, 4.14, 4.14, 2.99, 1.84, 1.84, 1.03, 0.96, 1.73, 2.82, 3.55, 3.15, 1.58, 0.0, 0.89, 2.2, 1.27, -0.0, -0.0, 1.8, 2.98, 3.39, 1.98, -0.0, -1.8, -2.4, -2.68, -2.5, -1.6, 0.0, 0.0, 2.68, 2.8, 3.58, 4.38, 5.75, 6.16, 6.16, -10.3, -10.3, -10.3, -9.86, -9.86, -9.86, -9.94, -9.94, -9.42, -9.42, -9.42, -9.42, -9.13, -9.13, -8.82, -8.22, -8.19, -7.59, -7.27, -7.27, -6.97, -6.97, -6.69, -6.69, -6.69, -6.35, -6.35, -6.35, -5.72, -5.08, -4.03, -4.1, -4.12, -3.79, -3.2, -2.22, -1.11, -0.59, 0.0, 0.59, 1.13, 1.8, 2.22, 2.44, 1.73, 1.57, 1.76, 1.58, 1.8, 2.23, 2.23, 2.48, 2.48, 2.48, 2.48, 2.22, 2.44, 2.44, 2.2, 1.73, 2.4, 4.37, 4.37, 2.54, 2.99, 1.49, 1.98, 1.98, 1.98, 1.98, 1.72, 2.99, 1.4, 0.89, 1.84, 1.75, 0.0, -1.27, -0.0, -0.0, 1.13, 2.21, 3.39, 2.53, -0.0, -2.0, -2.24, -2.95, 0.0, 0.0, 1.08, 2.8, 3.2, 3.39, 4.02, 4.92, 5.75, 5.75, -10.13, -10.13, -10.13, -9.86, -9.86, -9.86, -9.59, -9.94, -9.42, -9.42, -9.42, -9.42, -9.42, -8.82, -8.82, -8.22, -7.9, -7.59, -7.59, -7.27, -6.97, -6.69, -6.69, -6.69, -6.35, -6.35, -6.35, -6.08, -5.72, -5.72, -4.66, -4.03, -3.42, -3.47, -2.84, -2.44, -1.76, -0.57, 0.0, 0.57, 1.11, 1.76, 2.2, 1.88, 1.73, 1.08, 1.76, 1.58, 1.8, 1.8, 2.23, 2.48, 2.48, 2.48, 2.22, 2.22, 2.44, 2.2, 1.73, 1.73, 1.19, 1.7, 2.69, 1.84, 1.84, 1.32, 1.84, 0.95, 0.89, 1.03, 1.4, 1.84, 1.47, 1.75, 0.85, 0.0, 0.0, -1.8, -0.0, 1.55, 0.98, 1.4, 2.98, 3.9, 3.39, 0.0, 0.0, 1.08, 0.96, 2.2, 2.2, 2.84, 3.58, 3.35, 3.9, 4.02, 5.09, 5.09, -10.13, -10.13, -10.13, -9.86, -9.86, -9.86, -9.59, -9.37, -9.42, -9.42, -9.42, -9.42, -8.82, -8.82, -8.5, -8.22, -7.9, -7.6, -7.59, -7.59, -6.98, -6.98, -6.98, -6.98, -6.35, -6.35, -6.35, -6.35, -6.08, -5.72, -5.08, -4.44, -4.03, -3.4, -3.0, -2.36, -1.07, -0.61, 0.0, 0.0, 1.08, 1.73, 2.4, 2.82, 1.73, 1.73, 1.76, 1.58, 1.8, 2.23, 2.48, 2.86, 2.86, 2.44, 2.44, 2.44, 2.2, 1.73, 1.73, 1.73, 1.07, 1.16, 1.4, 0.94, 1.75, 1.4, 0.95, 0.0, 0.0, 0.0, 0.96, 0.89, 1.4, 1.33, 0.0, -0.94, -1.96, 0.0, 3.82, 3.48, 1.98, 1.98, 2.84, 4.0, 4.47, 3.9, 2.98, 2.48, 2.2, 2.2, 2.2, 3.72, 3.58, 3.72, 4.34, 4.02, 4.02, 4.38, -9.76, -9.76, -9.76, -9.5, -9.86, -9.66, -9.37, -9.37, -9.08, -9.08, -9.08, -8.82, -8.82, -8.5, -8.5, -8.22, -7.9, -7.6, -7.6, -7.3, -7.3, -6.98, -6.98, -6.98, -6.34, -6.35, -6.35, -6.35, -6.35, -5.72, -5.72, -5.08, -4.0, -3.56, -2.73, -2.12, -1.65, -0.58, 0.0, 0.0, 0.59, 1.07, 1.88, 2.82, 2.36, 2.18, 1.73, 1.76, 2.48, 2.86, 2.86, 3.12, 2.84, 2.84, 2.4, 2.4, 1.73, 1.73, 1.7, 1.16, 1.07, 1.16, 1.4, 0.94, 0.84, 0.0, 0.0, 0.0, 0.0, 0.0, 0.96, 1.4, 0.0, 0.89, 0.0, -2.8, -3.48, 0.0, 2.84, 2.84, 2.98, 3.58, 3.93, 4.57, 4.02, 3.9, 2.84, 0.98, 1.08, 2.48, 2.73, 3.72, 4.02, 3.72, 4.34, 3.47, 3.58, 4.02, -9.76, -9.76, -9.76, -9.5, -9.86, -9.66, -9.37, -9.37, -9.08, -9.08, -8.82, -8.82, -8.5, -8.5, -8.22, -8.22, -7.9, -7.9, -7.6, -7.6, -7.3, -6.98, -6.98, -6.7, -6.7, -6.34, -6.34, -6.35, -6.35, -5.72, -5.72, -5.08, -4.44, -3.8, -3.37, -2.23, -1.73, -1.1, -0.57, 0.0, 0.0, 0.59, 1.16, 1.7, 2.67, 2.16, 1.7, 2.44, 2.86, 3.22, 3.08, 2.82, 2.82, 2.36, 2.18, 1.7, 1.7, 1.16, 1.16, 1.16, 0.59, 0.59, 0.58, 0.0, 0.0, 0.0, 0.0, 0.0, 1.03, 0.96, 0.96, 0.0, 0.0, 0.0, 1.49, -2.84, -4.0, -1.08, -0.0, -0.0, 1.98, 3.79, 4.19, 4.22, 4.02, 3.9, 2.84, 2.48, 2.48, 3.16, 3.48, 3.72, 4.02, 3.72, 4.24, 4.02, 3.13, 3.58, -9.76, -9.76, -9.5, -9.3, -9.3, -9.66, -9.37, -9.37, -9.37, -8.82, -8.82, -8.82, -8.5, -8.22, -8.22, -8.22, -7.9, -7.9, -7.6, -7.6, -7.6, -7.6, -6.98, -6.98, -6.98, -6.7, -6.34, -6.34, -6.35, -5.72, -5.72, -5.08, -4.44, -4.0, -3.56, -2.89, -2.23, -1.18, -0.56, 0.0, 0.0, 0.58, 0.53, 0.59, 1.14, 1.75, 2.16, 2.82, 3.04, 3.04, 2.8, 2.32, 2.32, 2.16, 1.67, 1.84, 1.7, 1.16, 1.16, 0.59, 0.59, 0.59, 0.0, 0.0, 0.0, 0.0, 0.0, 0.0, 0.96, 1.03, 1.03, 0.0, 0.0, 0.0, 1.49, 0.0, -2.23, -1.19, -1.08, -0.0, 1.98, 4.19, 4.11, 4.22, 4.02, 4.38, 4.6, 4.98, 4.4, 4.4, 4.4, 5.26, 4.47, 4.24, 3.35, 4.02, 3.58, 3.58, -9.58, -9.58, -9.3, -9.3, -9.3, -9.3, -9.37, -9.37, -9.02, -8.78, -8.5, -8.5, -8.5, -8.22, -8.22, -8.22, -7.9, -7.9, -7.9, -7.6, -7.32, -7.32, -7.32, -6.98, -6.98, -6.98, -6.34, -6.34, -6.08, -5.98, -5.72, -5.08, -4.44, -4.0, -3.56, -2.89, -2.23, -1.73, -1.18, -0.56, 0.0, 0.0, 0.0, 0.58, 0.58, 1.12, 1.76, 2.29, 2.29, 2.14, 2.14, 1.8, 1.8, 1.8, 1.67, 1.14, 1.14, 1.05, 0.53, 0.53, 0.53, 0.0, 0.0, 0.0, 1.4, 1.4, 1.32, 0.0, 1.03, 1.03, 0.0, 0.0, 0.0, 0.0, 0.0, 3.2, 2.48, 2.53, 2.21, 3.2, 4.02, 5.09, 4.54, 3.93, 3.9, 4.92, 5.51, 5.51, 5.26, 5.36, 5.36, 5.26, 4.92, 4.34, 3.58, 3.13, 3.13, 3.13, -9.3, -9.3, -9.3, -9.3, -9.3, -9.3, -9.02, -9.02, -8.78, -8.78, -8.5, -8.5, -8.22, -8.22, -8.22, -8.22, -7.9, -7.9, -7.9, -7.6, -7.61, -7.61, -7.61, -6.98, -6.98, -6.98, -6.7, -6.34, -6.34, -5.7, -5.32, -5.08, -4.66, -4.0, -3.56, -2.89, -2.23, -1.71, -1.18, -0.56, 0.0, 0.0, 0.0, 0.0, 0.0, 0.57, 1.12, 1.2, 1.12, 1.12, 1.12, 1.12, 1.12, 1.12, 1.23, 1.14, 0.58, 0.58, 0.53, 0.58, 0.0, 0.0, 0.0, 0.0, 1.4, 1.4, 1.4, 1.49, 0.89, 0.0, 0.0, -0.95, -0.95, -0.95, 0.0, 1.73, 3.8, 4.5, 4.26, 4.87, 5.24, 4.47, 3.93, 3.16, 3.6, 4.02, 4.82, 4.98, 5.26, 5.36, 4.92, 4.92, 4.47, 3.82, 3.13, 3.13, 3.13, 3.13, -9.3, -9.3, -9.3, -9.3, -9.3, -9.3, -9.3, -8.78, -8.78, -8.78, -8.78, -8.5, -8.22, -8.22, -8.22, -8.22, -7.9, -7.9, -7.9, -7.91, -7.61, -7.61, -7.61, -7.61, -6.98, -6.98, -6.98, -6.34, -6.34, -5.7, -5.32, -5.08, -4.66, -4.0, -3.35, -3.05, -2.37, -1.71, -1.71, -1.18, -0.56, 0.0, 0.0, 0.0, 0.0, 0.57, 0.57, 0.57, 0.57, 1.12, 1.12, 1.12, 1.12, 0.57, 0.57, 0.58, 0.58, 0.0, 0.0, 0.0, 0.0, 0.0, 0.0, 0.0, 0.0, 1.4, 1.4, 0.94, 0.89, 0.0, 0.0, -1.03, -0.95, 0.0, 0.0, 1.73, 2.83, 3.63, 3.63, 4.34, 4.68, 3.58, 2.84, 2.95, 3.22, 3.39, 3.58, 4.34, 4.92, 4.92, 5.36, 3.58, 4.02, 3.2, 3.13, 3.13, 3.13, 3.13, -8.94, -8.94, -9.3, -9.3, -9.3, -8.73, -8.73, -8.45, -8.78, -8.78, -8.78, -8.5, -8.22, -8.22, -8.22, -8.22, -7.9, -7.9, -7.9, -7.9, -7.61, -7.61, -7.61, -7.33, -6.97, -6.98, -6.61, -6.34, -6.08, -5.7, -5.32, -5.08, -4.66, -4.0, -3.35, -2.86, -2.89, -2.37, -1.71, -1.09, -0.55, -0.59, 0.0, 0.0, 0.0, 0.0, 0.56, 0.56, 0.61, 0.57, 0.57, 0.57, 0.57, 0.57, 0.57, 0.0, 0.0, 0.0, 0.0, 0.0, 0.0, 0.0, 0.0, -0.57, 0.0, 0.0, 0.0, 0.0, 0.0, 0.0, -0.95, -0.95, -0.95, 0.0, 0.0, 0.94, 1.75, 1.84, 2.83, 3.63, 3.45, 2.4, 2.23, 2.53, 2.84, 2.98, 2.97, 3.58, 4.47, 5.36, 4.92, 4.02, 4.02, 3.58, 3.58, 3.58, 3.58, 3.58, -8.94, -8.94, -8.94, -8.94, -8.73, -8.73, -8.73, -8.45, -8.45, -8.45, -8.19, -8.22, -8.22, -8.22, -8.22, -8.22, -7.9, -7.9, -7.9, -7.6, -7.61, -7.61, -7.61, -6.97, -6.97, -6.98, -6.61, -6.34, -5.7, -5.7, -5.32, -4.66, -4.66, -4.0, -3.52, -2.86, -2.71, -2.37, -1.71, -1.16, -1.09, -0.55, 0.0, 0.0, 0.0, 0.0, 0.0, 0.0, 0.56, 0.61, 0.57, 0.57, 0.0, 0.0, 0.0, 0.0, 0.0, 0.0, 0.0, 0.0, 0.0, 0.0, -0.53, -0.57, -0.57, 0.0, 0.0, 0.0, 0.0, -0.89, -0.89, -0.95, 0.0, 0.0, 0.0, 0.0, 0.89, 0.94, 1.67, 2.83, 3.63, 1.19, -0.0, 0.88, 2.0, 2.84, 2.98, 3.39, 3.35, 4.02, 4.47, 4.47, 4.47, 4.02, 4.02, 3.82, 3.82, 3.82, -8.73, -8.73, -8.73, -8.73, -8.73, -8.73, -8.73, -8.45, -8.19, -8.19, -8.19, -7.9, -8.22, -8.22, -8.22, -8.22, -7.9, -7.6, -7.6, -7.6, -7.6, -7.61, -7.26, -6.98, -6.98, -6.61, -6.34, -5.95, -5.7, -5.06, -5.32, -4.66, -4.66, -4.0, -3.52, -2.86, -2.86, -2.21, -1.81, -1.71, -1.16, -0.55, -0.55, 0.0, 0.0, 0.0, 0.0, 0.0, 0.0, 0.0, 0.0, 0.0, 0.0, 0.0, 0.0, 0.0, 0.0, 0.0, 0.0, 0.0, -0.58, -0.58, -0.58, -0.53, -0.57, 0.0, 0.0, 0.0, 0.0, 0.0, 0.0, 0.0, 0.0, 0.0, 0.0, 0.0, 0.0, 0.89, 1.84, 2.69, 2.69, 1.19, -2.48, -0.0, 1.84, 2.95, 3.35, 2.98, 2.53, 2.98, 4.77, 4.92, 4.92, 4.47, 4.02, 4.34, 4.34, 4.34, -8.73, -8.73, -8.73, -8.73, -8.73, -8.73, -8.73, -8.19, -8.19, -8.19, -8.19, -7.9, -7.9, -8.22, -8.22, -7.9, -7.6, -7.6, -7.6, -7.6, -7.32, -6.98, -6.98, -6.98, -6.61, -6.34, -6.34, -5.7, -5.7, -5.06, -5.06, -4.66, -4.2, -4.0, -3.52, -2.86, -2.86, -2.21, -1.69, -1.71, -1.16, -1.09, -0.55, -0.55, 0.0, 0.0, 0.0, 0.0, 0.0, 0.0, 0.0, 0.0, 0.0, 0.0, 0.0, 0.0, 0.0, 0.0, -0.58, -0.58, -0.58, -0.58, -0.58, -1.14, -1.23, -0.89, -0.89, 0.0, 0.0, -0.84, -0.94, -1.73, -0.89, -1.01, 0.0, 0.0, 0.0, 0.94, 1.75, 2.69, 2.69, 1.03, -3.58, -0.0, 2.35, 3.63, 3.6, 2.98, 2.98, 2.84, 3.35, 4.24, 4.02, 4.02, 4.47, 4.82, 4.82, 4.82, -8.73, -8.73, -8.73, -8.49, -8.49, -8.49, -8.49, -8.19, -8.19, -8.19, -8.19, -7.9, -7.9, -7.9, -7.9, -7.6, -7.6, -7.6, -7.6, -7.6, -7.32, -6.98, -6.98, -6.34, -6.34, -6.34, -5.95, -5.7, -5.29, -5.06, -4.63, -4.66, -4.2, -4.0, -3.52, -2.86, -2.86, -2.21, -2.21, -1.71, -1.16, -1.16, -0.55, -0.55, -0.55, 0.0, 0.0, 0.0, 0.0, 0.0, 0.0, 0.0, 0.0, 0.0, 0.0, 0.0, -0.57, -0.57, -0.57, -0.58, -1.14, -1.14, -1.14, -1.14, -1.8, -1.75, -0.94, 0.0, -0.89, -1.75, -1.84, -2.82, -2.82, -1.01, 0.0, 0.0, 0.0, 0.89, 1.84, 2.83, 2.67, 0.89, 0.0, 2.84, 3.77, 3.48, 4.0, 3.6, 3.6, 2.84, 2.84, 2.21, 2.8, 4.02, 4.77, 5.26, 5.26, 5.26, -8.73, -8.15, -8.15, -8.15, -7.86, -7.86, -7.86, -7.86, -8.19, -8.19, -8.19, -8.19, -7.9, -7.9, -7.6, -7.6, -7.6, -7.6, -7.6, -7.27, -6.98, -6.7, -6.34, -6.34, -6.34, -5.95, -5.7, -5.29, -5.06, -5.06, -4.42, -4.2, -4.0, -3.52, -3.52, -2.86, -2.86, -2.21, -2.21, -1.71, -1.16, -1.16, -1.16, -0.55, -0.55, -0.59, -0.59, 0.0, 0.0, 0.0, 0.0, 0.0, 0.0, -0.61, -0.61, -0.57, -0.57, -0.57, -0.57, -1.12, -1.23, -1.23, -1.23, -1.8, -1.65, -1.65, -0.85, -0.85, -0.85, -0.89, -1.84, -2.82, -3.72, -3.72, -0.95, 0.0, 0.0, 1.01, 0.94, 1.84, 1.84, 0.94, 0.96, 4.34, 4.11, 3.48, 3.58, 3.6, 4.0, 4.0, 2.84, 2.53, 3.6, 4.24, 5.2, 5.7, 5.7, 5.7, -8.15, -8.15, -8.15, -8.15, -7.86, -7.86, -7.86, -7.86, -7.86, -8.19, -8.19, -8.19, -7.9, -7.6, -7.6, -7.6, -7.6, -7.6, -6.98, -6.98, -6.98, -6.7, -6.34, -6.34, -5.7, -5.7, -5.29, -5.06, -4.63, -4.63, -4.2, -4.2, -4.0, -3.52, -3.52, -2.86, -2.86, -2.21, -2.21, -1.71, -1.71, -1.16, -1.16, -1.16, -0.55, -0.55, -0.59, -0.59, -0.59, -0.59, -0.59, -0.56, -0.56, -0.56, -0.56, -0.61, -1.12, -1.12, -1.12, -1.12, -1.12, -1.65, -1.65, -1.65, -1.65, -1.65, -1.75, -0.89, -0.89, -0.85, -0.89, -0.89, -3.0, -3.22, -3.0, -1.03, 0.0, 0.0, 0.0, 0.0, 0.94, 0.84, 1.05, 3.97, 2.76, 2.95, 2.68, 2.84, 3.6, 3.6, 3.6, 3.35, 3.72, 4.4, 4.98, 5.7, 5.7, 5.7, -8.15, -8.15, -8.15, -7.86, -7.86, -7.86, -7.86, -7.86, -7.86, -7.86, -7.86, -7.86, -7.9, -7.3, -7.3, -7.3, -7.3, -6.98, -6.98, -6.98, -6.98, -6.34, -6.08, -5.7, -5.7, -5.29, -5.06, -5.06, -4.63, -4.42, -3.97, -4.2, -4.0, -3.52, -3.52, -2.86, -2.86, -2.21, -2.21, -1.81, -1.71, -1.71, -1.16, -1.16, -1.16, -1.09, -0.55, -0.59, -0.59, -0.59, -0.59, -0.59, -0.56, -0.56, -1.1, -1.1, -1.2, -1.12, -1.12, -1.12, -1.65, -1.65, -1.65, -1.65, -1.65, -2.29, -1.65, -1.1, -0.85, 0.0, 0.0, 0.0, 0.0, 0.0, 0.0, -1.84, 0.0, 0.0, 0.0, 0.0, 0.89, 1.84, 2.48, 0.89, 1.6, 1.83, 2.0, 1.8, 2.84, 2.84, 2.84, 3.6, 4.4, 4.4, 4.8, 5.26, 5.26, 5.26, -8.15, -8.15, -8.15, -8.15, -7.86, -7.86, -7.86, -7.86, -7.86, -7.86, -7.59, -7.59, -7.59, -7.59, -7.3, -7.3, -6.98, -6.98, -6.98, -6.98, -6.63, -6.63, -6.08, -5.7, -5.7, -5.06, -5.06, -5.06, -4.63, -4.42, -3.97, -3.97, -3.52, -3.52, -3.52, -2.86, -2.86, -2.33, -2.21, -2.21, -1.81, -1.71, -1.71, -1.16, -1.16, -1.16, -1.09, -1.09, -1.09, -1.09, -1.09, -1.18, -1.18, -1.1, -1.1, -1.1, -1.2, -1.2, -1.65, -1.65, -1.65, -1.65, -1.65, -2.14, -2.29, -2.29, -2.29, -1.73, -1.68, -0.85, -0.85, 0.0, 0.0, 0.0, 0.0, 0.0, 0.0, 0.0, 0.0, 0.95, 1.84, 3.55, 3.58, 0.89, 0.89, 2.16, 2.2, 2.2, 1.8, 2.23, 2.84, 2.84, 3.72, 4.09, 4.4, 4.82, 4.82, 4.82, -8.15, -8.15, -8.15, -8.15, -7.86, -7.86, -7.86, -7.59, -7.59, -7.59, -7.59, -7.59, -7.59, -7.59, -7.59, -6.98, -6.98, -6.98, -6.98, -6.35, -6.35, -6.35, -6.35, -5.98, -5.72, -5.32, -5.32, -5.06, -4.42, -4.42, -4.2, -4.2, -3.52, -3.52, -3.52, -3.01, -2.86, -2.86, -2.33, -2.21, -1.69, -1.69, -1.69, -1.71, -1.71, -1.16, -1.16, -1.09, -1.09, -1.09, -1.09, -1.09, -1.18, -1.18, -1.18, -1.1, -1.1, -1.76, -1.76, -1.65, -1.65, -1.65, -2.14, -2.29, -2.29, -2.29, -2.44, -2.75, -2.1, -1.76, -0.85, -0.85, 0.0, 0.0, 0.0, 0.0, 0.0, 0.0, 0.0, 0.95, 3.0, 4.87, 3.91, 3.72, 1.96, 2.12, 1.83, 1.66, 2.0, 1.8, 1.8, 1.8, 2.84, 4.09, 4.4, 5.26, 5.26, 5.26, -8.44, -8.44, -8.15, -8.15, -8.15, -7.86, -7.59, -7.59, -7.59, -7.59, -7.59, -7.59, -7.59, -7.59, -6.97, -6.97, -6.69, -6.69, -6.35, -6.35, -6.35, -6.35, -5.98, -5.98, -5.32, -5.32, -5.32, -5.32, -4.66, -4.66, -4.2, -4.2, -4.0, -3.52, -3.52, -3.52, -2.86, -2.86, -2.33, -2.21, -2.21, -1.69, -1.69, -1.81, -1.71, -1.71, -1.71, -1.71, -1.16, -1.16, -1.16, -1.18, -1.18, -1.18, -1.18, -1.73, -1.63, -1.63, -1.76, -1.76, -1.76, -2.29, -2.29, -2.29, -2.29, -2.29, -2.96, -2.96, -2.75, -2.7, -1.68, -1.68, -1.75, -0.94, -0.89, -0.94, -1.01, 0.0, 0.0, 0.95, 3.97, 4.87, 4.42, 5.26, 3.22, 1.84, 1.7, 1.83, 1.66, 2.0, 1.8, 2.0, 2.68, 3.48, 4.8, 5.26, 5.26, 5.26, -8.08, -8.08, -8.15, -8.15, -8.15, -7.88, -7.59, -7.59, -7.59, -7.59, -7.59, -7.59, -7.27, -6.97, -6.97, -6.97, -6.97, -6.69, -6.35, -6.35, -6.35, -5.98, -5.98, -5.46, -5.32, -5.32, -5.32, -5.32, -4.66, -4.66, -4.66, -4.2, -4.0, -4.0, -3.52, -3.52, -3.01, -2.86, -2.86, -2.21, -2.21, -2.21, -2.21, -2.21, -1.81, -1.71, -1.71, -1.71, -1.71, -1.71, -1.71, -1.61, -1.73, -1.73, -1.73, -1.73, -1.73, -1.73, -1.76, -1.76, -2.29, -2.29, -2.29, -2.29, -2.29, -2.77, -2.96, -2.96, -3.42, -3.49, -2.47, -2.7, -1.75, -0.89, 0.0, 0.0, 0.0, 0.0, 0.0, 1.84, 2.82, 2.99, 3.77, 4.98, 3.49, 0.95, 0.96, 0.96, 0.88, 0.88, 2.0, 2.95, 3.48, 4.29, 4.4, 4.4, 4.4, 4.4, -8.08, -8.08, -8.08, -7.81, -7.81, -7.55, -7.55, -7.59, -7.59, -7.59, -7.59, -6.97, -6.97, -6.97, -6.97, -6.97, -6.97, -6.97, -6.35, -6.35, -6.35, -5.98, -5.98, -5.72, -5.06, -5.06, -5.06, -4.63, -4.42, -4.66, -4.66, -4.2, -4.2, -4.0, -3.52, -3.52, -3.52, -2.86, -2.86, -2.86, -2.21, -2.21, -2.21, -2.21, -2.37, -2.23, -1.71, -1.71, -1.71, -1.71, -1.71, -1.71, -1.73, -1.73, -1.73, -1.73, -1.73, -1.73, -2.26, -2.29, -2.29, -2.29, -2.29, -2.29, -2.77, -2.96, -2.96, -2.96, -3.42, -3.6, -2.33, -1.69, -0.85, 0.0, 0.0, 0.94, 0.89, 0.0, 0.0, 0.95, 1.96, 1.73, 2.67, 4.54, 3.22, -0.0, -0.0, -0.0, -0.0, 0.96, 1.83, 1.83, 2.95, 3.48, 3.72, 3.72, 3.72, 3.72, -8.08, -8.08, -8.08, -8.08, -7.55, -7.55, -7.55, -7.27, -7.27, -7.27, -6.97, -6.97, -6.97, -6.97, -6.97, -6.97, -6.97, -6.97, -6.64, -6.35, -6.08, -5.72, -5.72, -5.72, -5.32, -5.06, -5.06, -4.63, -4.63, -4.42, -4.42, -3.97, -4.2, -4.0, -3.52, -3.52, -3.52, -3.35, -2.86, -2.86, -2.86, -2.86, -2.21, -2.21, -2.37, -2.37, -2.23, -1.71, -1.71, -1.71, -1.71, -1.71, -1.71, -1.73, -1.73, -1.73, -2.26, -2.26, -2.26, -2.26, -2.29, -2.29, -2.29, -2.77, -2.96, -2.96, -2.96, -2.96, -3.42, -3.4, -3.37, -2.49, -0.85, 0.0, 0.94, 0.85, 0.85, 0.0, 0.0, 0.0, 1.01, 1.01, 2.82, 4.19, 4.34, -0.0, -0.95, -1.03, -0.0, -0.0, -0.0, 0.81, 0.96, 2.0, 2.23, 2.84, 2.84, 2.84, -8.0, -8.0, -8.08, -8.08, -7.85, -7.55, -7.55, -7.55, -7.27, -7.27, -6.97, -6.97, -6.97, -6.97, -6.97, -6.97, -6.97, -6.64, -6.35, -6.35, -6.08, -5.72, -5.72, -5.72, -5.32, -5.32, -5.06, -5.06, -4.63, -4.42, -4.42, -3.97, -3.97, -4.0, -3.52, -3.52, -3.52, -3.35, -2.86, -2.86, -2.86, -2.86, -2.71, -2.21, -2.21, -2.37, -2.37, -1.81, -1.81, -1.81, -1.71, -1.71, -1.71, -1.71, -1.84, -2.26, -2.26, -2.26, -2.26, -2.26, -2.26, -2.44, -2.96, -2.96, -2.96, -2.96, -2.96, -2.75, -3.4, -3.4, -3.6, -2.89, -1.07, 0.0, 0.0, 0.0, 0.0, 0.0, 0.0, 0.0, 0.0, 0.95, 1.84, 3.97, 4.6, 1.41, -1.01, -0.95, -0.95, -0.0, -0.0, -0.0, -0.0, 0.88, 2.0, 2.95, 2.95, 2.95, -8.0, -8.0, -8.08, -8.08, -7.85, -7.55, -7.55, -7.55, -7.27, -7.27, -6.97, -6.97, -6.97, -6.97, -6.97, -6.97, -6.97, -6.64, -6.35, -6.35, -6.08, -5.72, -5.72, -5.72, -5.32, -5.32, -5.06, -5.06, -4.63, -4.42, -4.42, -3.97, -3.97, -4.0, -3.52, -3.52, -3.52, -3.35, -2.86, -2.86, -2.86, -2.86, -2.71, -2.21, -2.21, -2.37, -2.37, -1.81, -1.81, -1.81, -1.71, -1.71, -1.71, -1.71, -1.84, -2.26, -2.26, -2.26, -2.26, -2.26, -2.26, -2.44, -2.96, -2.96, -2.96, -2.96, -2.96, -2.75, -3.4, -3.4, -3.6, -2.89, -1.07, 0.0, 0.0, 0.0, 0.0, 0.0, 0.0, 0.0, 0.0, 0.0, 2.12, 3.72, 5.06, 4.29, 2.84, -0.0, -0.0, -0.0, -0.0, -0.0, -0.0, 1.05, 2.16, 3.91, 3.91, 3.91]}]